Time,TemperatureF,DewpointF,PressureIn,WindDirection,WindDirectionDegrees,WindSpeedMPH,WindSpeedGustMPH,Humidity,HourlyPrecipIn,Conditions,Clouds,dailyrainin,SoftwareType,DateUTC
2013-04-11 00:00:00,56.9,49.8,29.80,NNW,333,0.0,0.0,77,0.00,,SCT,0.00,WeatherDisplay:10.37,2013-04-11 04:00:00,
2013-04-11 00:01:00,56.9,49.8,29.80,NNW,333,0.0,0.0,77,0.00,,SCT,0.00,WeatherDisplay:10.37,2013-04-11 04:01:00,
2013-04-11 00:02:00,56.9,49.8,29.80,NNW,333,0.0,0.0,77,0.00,,SCT,0.00,WeatherDisplay:10.37,2013-04-11 04:02:00,
2013-04-11 00:05:00,56.9,49.8,29.80,NNW,333,0.0,0.0,77,0.00,,SCT,0.00,WeatherDisplay:10.37,2013-04-11 04:05:00,
2013-04-11 00:07:00,56.9,49.8,29.80,NNW,333,0.0,0.0,77,0.00,,SCT,0.00,WeatherDisplay:10.37,2013-04-11 04:07:00,
2013-04-11 00:09:00,56.7,49.6,29.80,NNW,333,0.0,0.0,77,0.00,,SCT,0.00,WeatherDisplay:10.37,2013-04-11 04:09:00,
2013-04-11 00:10:00,56.7,49.6,29.80,NNW,333,0.0,0.0,77,0.00,,SCT,0.00,WeatherDisplay:10.37,2013-04-11 04:10:00,
2013-04-11 00:13:00,56.7,49.6,29.80,NNW,333,0.0,0.0,77,0.00,,SCT,0.00,WeatherDisplay:10.37,2013-04-11 04:13:00,
2013-04-11 00:15:00,56.6,49.8,29.80,NNW,333,0.0,0.0,78,0.00,,SCT,0.00,WeatherDisplay:10.37,2013-04-11 04:15:00,
2013-04-11 00:16:00,56.6,49.8,29.80,NNW,333,0.0,0.0,78,0.00,,SCT,0.00,WeatherDisplay:10.37,2013-04-11 04:16:00,
2013-04-11 00:18:00,56.7,49.6,29.80,NNW,333,2.3,0.0,77,0.00,,SCT,0.00,WeatherDisplay:10.37,2013-04-11 04:18:00,
2013-04-11 00:20:00,56.7,49.6,29.80,NNW,333,0.0,0.0,77,0.00,,SCT,0.00,WeatherDisplay:10.37,2013-04-11 04:20:00,
2013-04-11 00:22:00,56.7,49.9,29.80,NNW,333,0.0,0.0,78,0.00,,SCT,0.00,WeatherDisplay:10.37,2013-04-11 04:22:00,
2013-04-11 00:24:00,56.7,49.9,29.80,NNW,333,0.0,0.0,78,0.00,,SCT,0.00,WeatherDisplay:10.37,2013-04-11 04:24:00,
2013-04-11 00:26:00,56.9,50.1,29.80,NNW,333,0.0,0.0,78,0.00,,SCT,0.00,WeatherDisplay:10.37,2013-04-11 04:26:00,
2013-04-11 00:29:00,56.9,50.1,29.80,NNW,333,0.0,0.0,78,0.00,,SCT,0.00,WeatherDisplay:10.37,2013-04-11 04:29:00,
2013-04-11 00:31:00,56.9,50.1,29.80,NNW,333,0.0,0.0,78,0.00,,SCT,0.00,WeatherDisplay:10.37,2013-04-11 04:31:00,
2013-04-11 00:34:00,56.9,50.1,29.80,NNW,333,0.0,0.0,78,0.00,,SCT,0.00,WeatherDisplay:10.37,2013-04-11 04:34:00,
2013-04-11 00:37:00,56.9,50.1,29.80,NNW,333,0.0,0.0,78,0.00,,SCT,0.00,WeatherDisplay:10.37,2013-04-11 04:37:00,
2013-04-11 00:39:00,56.7,49.9,29.80,NNW,333,0.0,0.0,78,0.00,,SCT,0.00,WeatherDisplay:10.37,2013-04-11 04:39:00,
2013-04-11 00:40:00,56.7,49.9,29.80,NNW,333,0.0,0.0,78,0.00,,SCT,0.00,WeatherDisplay:10.37,2013-04-11 04:40:00,
2013-04-11 00:43:00,56.7,49.9,29.79,NNW,333,0.0,0.0,78,0.00,,SCT,0.00,WeatherDisplay:10.37,2013-04-11 04:43:00,
2013-04-11 00:44:00,56.7,49.6,29.79,NNW,333,0.0,0.0,77,0.00,,SCT,0.00,WeatherDisplay:10.37,2013-04-11 04:44:00,
2013-04-11 00:45:00,56.7,49.9,29.79,NNW,333,0.0,0.0,78,0.00,,SCT,0.00,WeatherDisplay:10.37,2013-04-11 04:45:00,
2013-04-11 00:50:00,56.7,49.9,29.80,NNW,333,0.0,0.0,78,0.00,,SCT,0.00,WeatherDisplay:10.37,2013-04-11 04:50:00,
2013-04-11 00:51:00,56.7,50.3,29.79,NNW,333,0.0,0.0,79,0.00,,SCT,0.00,WeatherDisplay:10.37,2013-04-11 04:51:00,
2013-04-11 00:52:00,56.7,50.3,29.80,NNW,333,0.0,0.0,79,0.00,,SCT,0.00,WeatherDisplay:10.37,2013-04-11 04:52:00,
2013-04-11 00:55:00,56.7,49.9,29.79,NNW,333,0.0,0.0,78,0.00,,SCT,0.00,WeatherDisplay:10.37,2013-04-11 04:55:00,
2013-04-11 00:56:00,56.7,49.9,29.79,NNW,333,0.0,0.0,78,0.00,,SCT,0.00,WeatherDisplay:10.37,2013-04-11 04:56:00,
2013-04-11 01:00:00,56.7,49.9,29.79,NNW,333,0.0,0.0,78,0.00,,SCT,0.00,WeatherDisplay:10.37,2013-04-11 05:00:00,
2013-04-11 01:01:00,56.7,49.9,29.79,NNW,333,0.0,0.0,78,0.00,,SCT,0.00,WeatherDisplay:10.37,2013-04-11 05:01:00,
2013-04-11 01:02:00,56.7,49.9,29.79,NNW,333,0.0,0.0,78,0.00,,SCT,0.00,WeatherDisplay:10.37,2013-04-11 05:02:00,
2013-04-11 01:05:00,56.7,50.3,29.79,ENE,78,0.0,0.0,79,0.00,,SCT,0.00,WeatherDisplay:10.37,2013-04-11 05:05:00,
2013-04-11 01:06:00,56.7,50.3,29.79,ENE,78,0.0,0.0,79,0.00,,SCT,0.00,WeatherDisplay:10.37,2013-04-11 05:06:00,
2013-04-11 01:10:00,57.2,50.7,29.79,East,96,0.0,0.0,79,0.00,,SCT,0.00,WeatherDisplay:10.37,2013-04-11 05:10:00,
2013-04-11 01:11:00,57.3,50.8,29.79,East,96,0.0,0.0,79,0.00,,SCT,0.00,WeatherDisplay:10.37,2013-04-11 05:11:00,
2013-04-11 01:14:00,57.6,50.8,29.79,East,96,0.0,0.0,78,0.00,,SCT,0.00,WeatherDisplay:10.37,2013-04-11 05:14:00,
2013-04-11 01:15:00,57.6,50.8,29.79,East,96,0.0,0.0,78,0.00,,SCT,0.00,WeatherDisplay:10.37,2013-04-11 05:15:00,
2013-04-11 01:17:00,57.8,51.3,29.79,East,96,0.0,0.0,79,0.00,,SCT,0.00,WeatherDisplay:10.37,2013-04-11 05:17:00,
2013-04-11 01:20:00,58.1,51.3,29.79,East,96,0.0,0.0,78,0.00,,SCT,0.00,WeatherDisplay:10.37,2013-04-11 05:20:00,
2013-04-11 01:23:00,58.3,51.5,29.79,East,96,0.0,0.0,78,0.00,,SCT,0.00,WeatherDisplay:10.37,2013-04-11 05:23:00,
2013-04-11 01:24:00,58.3,51.5,29.79,East,96,0.0,0.0,78,0.00,,SCT,0.00,WeatherDisplay:10.37,2013-04-11 05:24:00,
2013-04-11 01:25:00,58.4,51.6,29.79,East,96,0.0,0.0,78,0.00,,SCT,0.00,WeatherDisplay:10.37,2013-04-11 05:25:00,
2013-04-11 01:26:00,58.4,51.6,29.79,East,96,0.0,0.0,78,0.00,,SCT,0.00,WeatherDisplay:10.37,2013-04-11 05:26:00,
2013-04-11 01:28:00,58.6,51.8,29.79,East,96,0.0,0.0,78,0.00,,SCT,0.00,WeatherDisplay:10.37,2013-04-11 05:28:00,
2013-04-11 01:30:00,58.6,51.8,29.78,East,96,0.0,0.0,78,0.00,,SCT,0.00,WeatherDisplay:10.37,2013-04-11 05:30:00,
2013-04-11 01:31:00,58.7,51.9,29.78,East,96,0.0,0.0,78,0.00,,SCT,0.00,WeatherDisplay:10.37,2013-04-11 05:31:00,
2013-04-11 01:35:00,59.0,52.1,29.78,East,96,0.0,0.0,78,0.00,,SCT,0.00,WeatherDisplay:10.37,2013-04-11 05:35:00,
2013-04-11 01:37:00,59.2,52.3,29.78,East,96,0.0,0.0,78,0.00,,SCT,0.00,WeatherDisplay:10.37,2013-04-11 05:37:00,
2013-04-11 01:38:00,59.2,52.3,29.78,East,96,0.0,0.0,78,0.00,,SCT,0.00,WeatherDisplay:10.37,2013-04-11 05:38:00,
2013-04-11 01:39:00,59.2,52.3,29.78,East,96,0.0,0.0,78,0.00,,SCT,0.00,WeatherDisplay:10.37,2013-04-11 05:39:00,
2013-04-11 01:40:00,59.2,52.3,29.78,East,96,0.0,0.0,78,0.00,,SCT,0.00,WeatherDisplay:10.37,2013-04-11 05:40:00,
2013-04-11 01:43:00,59.3,52.4,29.78,East,96,0.0,0.0,78,0.00,,SCT,0.00,WeatherDisplay:10.37,2013-04-11 05:43:00,
2013-04-11 01:44:00,59.3,52.4,29.78,East,96,0.0,0.0,78,0.00,,SCT,0.00,WeatherDisplay:10.37,2013-04-11 05:44:00,
2013-04-11 01:45:00,59.3,52.4,29.78,East,96,0.0,0.0,78,0.00,,SCT,0.00,WeatherDisplay:10.37,2013-04-11 05:45:00,
2013-04-11 01:49:00,59.3,52.1,29.78,East,96,0.0,0.0,77,0.00,,SCT,0.00,WeatherDisplay:10.37,2013-04-11 05:49:00,
2013-04-11 01:50:00,59.3,52.1,29.78,East,96,0.0,0.0,77,0.00,,SCT,0.00,WeatherDisplay:10.37,2013-04-11 05:50:00,
2013-04-11 01:53:00,59.3,52.1,29.78,East,96,0.0,0.0,77,0.00,,SCT,0.00,WeatherDisplay:10.37,2013-04-11 05:53:00,
2013-04-11 01:55:00,59.3,52.1,29.78,East,96,0.0,0.0,77,0.00,,SCT,0.00,WeatherDisplay:10.37,2013-04-11 05:55:00,
2013-04-11 01:56:00,59.3,52.1,29.78,East,96,0.0,0.0,77,0.00,,SCT,0.00,WeatherDisplay:10.37,2013-04-11 05:56:00,
2013-04-11 01:57:00,59.2,52.0,29.78,East,96,0.0,0.0,77,0.00,,SCT,0.00,WeatherDisplay:10.37,2013-04-11 05:57:00,
2013-04-11 02:00:00,59.2,52.0,29.78,East,96,0.0,0.0,77,0.00,,SCT,0.00,WeatherDisplay:10.37,2013-04-11 06:00:00,
2013-04-11 02:03:00,59.2,52.0,29.78,East,96,0.0,0.0,77,0.00,,SCT,0.00,WeatherDisplay:10.37,2013-04-11 06:03:00,
2013-04-11 02:05:00,59.2,52.0,29.78,East,96,0.0,0.0,77,0.00,,SCT,0.00,WeatherDisplay:10.37,2013-04-11 06:05:00,
2013-04-11 02:06:00,59.2,52.0,29.78,East,96,0.0,0.0,77,0.00,,SCT,0.00,WeatherDisplay:10.37,2013-04-11 06:06:00,
2013-04-11 02:09:00,59.2,52.0,29.77,East,96,0.0,0.0,77,0.00,,SCT,0.00,WeatherDisplay:10.37,2013-04-11 06:09:00,
2013-04-11 02:12:00,59.2,52.0,29.77,East,96,0.0,0.0,77,0.00,,SCT,0.00,WeatherDisplay:10.37,2013-04-11 06:12:00,
2013-04-11 02:14:00,59.2,52.0,29.77,East,96,0.0,0.0,77,0.00,,SCT,0.00,WeatherDisplay:10.37,2013-04-11 06:14:00,
2013-04-11 02:17:00,59.2,52.0,29.77,East,96,0.0,0.0,77,0.00,,SCT,0.00,WeatherDisplay:10.37,2013-04-11 06:17:00,
2013-04-11 02:19:00,59.2,52.0,29.77,East,96,0.0,0.0,77,0.00,,SCT,0.00,WeatherDisplay:10.37,2013-04-11 06:19:00,
2013-04-11 02:20:00,59.2,52.0,29.77,East,96,0.0,0.0,77,0.00,,SCT,0.00,WeatherDisplay:10.37,2013-04-11 06:20:00,
2013-04-11 02:22:00,59.2,52.0,29.77,East,96,0.0,0.0,77,0.00,,SCT,0.00,WeatherDisplay:10.37,2013-04-11 06:22:00,
2013-04-11 02:25:00,59.0,51.8,29.77,East,96,0.0,0.0,77,0.00,,SCT,0.00,WeatherDisplay:10.37,2013-04-11 06:25:00,
2013-04-11 02:28:00,59.0,51.8,29.76,East,96,0.0,0.0,77,0.00,,SCT,0.00,WeatherDisplay:10.37,2013-04-11 06:28:00,
2013-04-11 02:29:00,58.9,51.7,29.76,East,96,0.0,0.0,77,0.00,,SCT,0.00,WeatherDisplay:10.37,2013-04-11 06:29:00,
2013-04-11 02:30:00,58.9,51.7,29.76,East,96,0.0,0.0,77,0.00,,SCT,0.00,WeatherDisplay:10.37,2013-04-11 06:30:00,
2013-04-11 02:33:00,58.7,51.5,29.76,East,96,0.0,0.0,77,0.00,,SCT,0.00,WeatherDisplay:10.37,2013-04-11 06:33:00,
2013-04-11 02:35:00,58.6,51.4,29.77,East,96,0.0,0.0,77,0.00,,SCT,0.00,WeatherDisplay:10.37,2013-04-11 06:35:00,
2013-04-11 02:36:00,58.6,51.4,29.77,East,96,0.0,0.0,77,0.00,,SCT,0.00,WeatherDisplay:10.37,2013-04-11 06:36:00,
2013-04-11 02:37:00,58.6,51.4,29.77,East,96,0.0,0.0,77,0.00,,SCT,0.00,WeatherDisplay:10.37,2013-04-11 06:37:00,
2013-04-11 02:41:00,58.4,51.2,29.77,East,96,0.0,0.0,77,0.00,,SCT,0.00,WeatherDisplay:10.37,2013-04-11 06:41:00,
2013-04-11 02:42:00,58.4,51.2,29.77,East,96,0.0,0.0,77,0.00,,SCT,0.00,WeatherDisplay:10.37,2013-04-11 06:42:00,
2013-04-11 02:43:00,58.3,51.1,29.77,East,96,0.0,0.0,77,0.00,,SCT,0.00,WeatherDisplay:10.37,2013-04-11 06:43:00,
2013-04-11 02:45:00,58.3,51.1,29.77,East,96,0.0,0.0,77,0.00,,SCT,0.00,WeatherDisplay:10.37,2013-04-11 06:45:00,
2013-04-11 02:47:00,58.1,50.9,29.77,East,96,0.0,0.0,77,0.00,,SCT,0.00,WeatherDisplay:10.37,2013-04-11 06:47:00,
2013-04-11 02:48:00,58.1,50.9,29.77,East,96,0.0,0.0,77,0.00,,SCT,0.00,WeatherDisplay:10.37,2013-04-11 06:48:00,
2013-04-11 02:52:00,58.0,50.8,29.77,East,96,0.0,0.0,77,0.00,,SCT,0.00,WeatherDisplay:10.37,2013-04-11 06:52:00,
2013-04-11 02:54:00,57.6,50.4,29.77,East,96,0.0,0.0,77,0.00,,SCT,0.00,WeatherDisplay:10.37,2013-04-11 06:54:00,
2013-04-11 02:55:00,57.6,50.4,29.77,East,96,0.0,0.0,77,0.00,,SCT,0.00,WeatherDisplay:10.37,2013-04-11 06:55:00,
2013-04-11 02:56:00,57.5,50.3,29.77,East,96,0.0,0.0,77,0.00,,SCT,0.00,WeatherDisplay:10.37,2013-04-11 06:56:00,
2013-04-11 02:57:00,57.3,50.1,29.77,East,96,0.0,0.0,77,0.00,,SCT,0.00,WeatherDisplay:10.37,2013-04-11 06:57:00,
2013-04-11 03:01:00,56.9,50.1,29.77,East,96,0.0,0.0,78,0.00,,SCT,0.00,WeatherDisplay:10.37,2013-04-11 07:01:00,
2013-04-11 03:02:00,56.9,50.1,29.76,East,96,0.0,0.0,78,0.00,,SCT,0.00,WeatherDisplay:10.37,2013-04-11 07:02:00,
2013-04-11 03:04:00,56.7,49.9,29.76,East,96,0.0,0.0,78,0.00,,SCT,0.00,WeatherDisplay:10.37,2013-04-11 07:04:00,
2013-04-11 03:07:00,56.7,49.9,29.76,East,96,0.0,0.0,78,0.00,,SCT,0.00,WeatherDisplay:10.37,2013-04-11 07:07:00,
2013-04-11 03:08:00,56.6,49.8,29.76,East,96,0.0,0.0,78,0.00,,SCT,0.00,WeatherDisplay:10.37,2013-04-11 07:08:00,
2013-04-11 03:09:00,56.6,49.8,29.76,East,96,0.0,0.0,78,0.00,,SCT,0.00,WeatherDisplay:10.37,2013-04-11 07:09:00,
2013-04-11 03:11:00,56.6,49.8,29.76,East,96,0.0,0.0,78,0.00,,SCT,0.00,WeatherDisplay:10.37,2013-04-11 07:11:00,
2013-04-11 03:12:00,56.5,49.7,29.76,East,96,0.0,0.0,78,0.00,,SCT,0.00,WeatherDisplay:10.37,2013-04-11 07:12:00,
2013-04-11 03:14:00,56.5,49.7,29.76,East,96,0.0,0.0,78,0.00,,SCT,0.00,WeatherDisplay:10.37,2013-04-11 07:14:00,
2013-04-11 03:18:00,56.3,49.5,29.76,East,96,0.0,0.0,78,0.00,,SCT,0.00,WeatherDisplay:10.37,2013-04-11 07:18:00,
2013-04-11 03:20:00,56.2,49.4,29.76,East,96,0.0,0.0,78,0.00,,SCT,0.00,WeatherDisplay:10.37,2013-04-11 07:20:00,
2013-04-11 03:22:00,56.0,49.2,29.76,East,96,0.0,0.0,78,0.00,,SCT,0.00,WeatherDisplay:10.37,2013-04-11 07:22:00,
2013-04-11 03:25:00,56.0,49.2,29.76,East,96,0.0,0.0,78,0.00,,SCT,0.00,WeatherDisplay:10.37,2013-04-11 07:25:00,
2013-04-11 03:27:00,56.0,49.6,29.76,East,96,0.0,0.0,79,0.00,,SCT,0.00,WeatherDisplay:10.37,2013-04-11 07:27:00,
2013-04-11 03:28:00,56.0,49.6,29.76,East,96,0.0,0.0,79,0.00,,SCT,0.00,WeatherDisplay:10.37,2013-04-11 07:28:00,
2013-04-11 03:31:00,56.0,49.6,29.76,East,96,0.0,0.0,79,0.00,,SCT,0.00,WeatherDisplay:10.37,2013-04-11 07:31:00,
2013-04-11 03:32:00,55.9,49.5,29.76,East,96,0.0,0.0,79,0.00,,SCT,0.00,WeatherDisplay:10.37,2013-04-11 07:32:00,
2013-04-11 03:35:00,55.7,49.3,29.76,East,96,0.0,0.0,79,0.00,,SCT,0.00,WeatherDisplay:10.37,2013-04-11 07:35:00,
2013-04-11 03:37:00,55.4,49.0,29.75,East,96,0.0,0.0,79,0.00,,SCT,0.00,WeatherDisplay:10.37,2013-04-11 07:37:00,
2013-04-11 03:38:00,55.4,49.0,29.75,East,96,0.0,0.0,79,0.00,,SCT,0.00,WeatherDisplay:10.37,2013-04-11 07:38:00,
2013-04-11 03:39:00,55.3,48.9,29.76,East,96,0.0,0.0,79,0.00,,SCT,0.00,WeatherDisplay:10.37,2013-04-11 07:39:00,
2013-04-11 03:43:00,55.0,48.6,29.75,East,96,0.0,0.0,79,0.00,,SCT,0.00,WeatherDisplay:10.37,2013-04-11 07:43:00,
2013-04-11 03:44:00,55.0,48.6,29.75,East,96,0.0,0.0,79,0.00,,SCT,0.00,WeatherDisplay:10.37,2013-04-11 07:44:00,
2013-04-11 03:45:00,54.8,48.4,29.75,East,96,0.0,0.0,79,0.00,,SCT,0.00,WeatherDisplay:10.37,2013-04-11 07:45:00,
2013-04-11 03:47:00,54.8,48.4,29.75,East,96,0.0,0.0,79,0.00,,SCT,0.00,WeatherDisplay:10.37,2013-04-11 07:47:00,
2013-04-11 03:48:00,54.8,48.4,29.75,East,96,0.0,0.0,79,0.00,,SCT,0.00,WeatherDisplay:10.37,2013-04-11 07:48:00,
2013-04-11 03:49:00,54.7,48.3,29.75,East,96,0.0,0.0,79,0.00,,SCT,0.00,WeatherDisplay:10.37,2013-04-11 07:49:00,
2013-04-11 03:53:00,54.7,48.3,29.75,East,96,0.0,0.0,79,0.00,,SCT,0.00,WeatherDisplay:10.37,2013-04-11 07:53:00,
2013-04-11 03:54:00,54.7,48.3,29.75,East,96,0.0,0.0,79,0.00,,SCT,0.00,WeatherDisplay:10.37,2013-04-11 07:54:00,
2013-04-11 03:55:00,54.7,48.3,29.75,East,96,0.0,0.0,79,0.00,,SCT,0.00,WeatherDisplay:10.37,2013-04-11 07:55:00,
2013-04-11 03:56:00,54.5,48.1,29.75,East,96,0.0,0.0,79,0.00,,SCT,0.00,WeatherDisplay:10.37,2013-04-11 07:56:00,
2013-04-11 03:59:00,54.5,48.1,29.75,East,96,0.0,0.0,79,0.00,,SCT,0.00,WeatherDisplay:10.37,2013-04-11 07:59:00,
2013-04-11 04:01:00,54.5,48.1,29.75,East,96,0.0,0.0,79,0.00,,SCT,0.00,WeatherDisplay:10.37,2013-04-11 08:01:00,
2013-04-11 04:02:00,54.5,48.1,29.75,East,96,0.0,0.0,79,0.00,,SCT,0.00,WeatherDisplay:10.37,2013-04-11 08:02:00,
2013-04-11 04:06:00,54.4,48.0,29.75,East,96,0.0,0.0,79,0.00,,SCT,0.00,WeatherDisplay:10.37,2013-04-11 08:06:00,
2013-04-11 04:09:00,54.2,47.8,29.76,East,96,0.0,0.0,79,0.00,,SCT,0.00,WeatherDisplay:10.37,2013-04-11 08:09:00,
2013-04-11 04:13:00,54.2,48.2,29.76,East,96,0.0,0.0,80,0.00,,SCT,0.00,WeatherDisplay:10.37,2013-04-11 08:13:00,
2013-04-11 04:14:00,54.2,48.2,29.76,East,96,0.0,0.0,80,0.00,,SCT,0.00,WeatherDisplay:10.37,2013-04-11 08:14:00,
2013-04-11 04:15:00,54.2,48.2,29.76,East,96,0.0,0.0,80,0.00,,SCT,0.00,WeatherDisplay:10.37,2013-04-11 08:15:00,
2013-04-11 04:19:00,54.1,48.1,29.76,East,96,0.0,0.0,80,0.00,,SCT,0.00,WeatherDisplay:10.37,2013-04-11 08:19:00,
2013-04-11 04:21:00,54.1,48.1,29.76,East,96,0.0,0.0,80,0.00,,SCT,0.00,WeatherDisplay:10.37,2013-04-11 08:21:00,
2013-04-11 04:23:00,53.9,47.9,29.76,East,96,0.0,0.0,80,0.00,,SCT,0.00,WeatherDisplay:10.37,2013-04-11 08:23:00,
2013-04-11 04:27:00,53.8,47.8,29.76,East,96,0.0,0.0,80,0.00,,SCT,0.00,WeatherDisplay:10.37,2013-04-11 08:27:00,
2013-04-11 04:28:00,53.8,47.8,29.76,East,96,0.0,0.0,80,0.00,,SCT,0.00,WeatherDisplay:10.37,2013-04-11 08:28:00,
2013-04-11 04:32:00,53.6,47.6,29.76,East,96,0.0,0.0,80,0.00,,SCT,0.00,WeatherDisplay:10.37,2013-04-11 08:32:00,
2013-04-11 04:33:00,53.6,47.6,29.75,East,96,0.0,0.0,80,0.00,,SCT,0.00,WeatherDisplay:10.37,2013-04-11 08:33:00,
2013-04-11 04:37:00,53.5,47.5,29.76,East,96,0.0,0.0,80,0.00,,SCT,0.00,WeatherDisplay:10.37,2013-04-11 08:37:00,
2013-04-11 04:38:00,53.5,47.5,29.76,East,96,0.0,0.0,80,0.00,,SCT,0.00,WeatherDisplay:10.37,2013-04-11 08:38:00,
2013-04-11 04:41:00,53.3,47.3,29.76,East,96,0.0,0.0,80,0.00,,SCT,0.00,WeatherDisplay:10.37,2013-04-11 08:41:00,
2013-04-11 04:42:00,53.3,47.3,29.76,East,96,0.0,0.0,80,0.00,,SCT,0.00,WeatherDisplay:10.37,2013-04-11 08:42:00,
2013-04-11 04:43:00,53.3,47.3,29.76,East,96,0.0,0.0,80,0.00,,SCT,0.00,WeatherDisplay:10.37,2013-04-11 08:43:00,
2013-04-11 04:46:00,53.2,47.2,29.76,East,96,0.0,0.0,80,0.00,,SCT,0.00,WeatherDisplay:10.37,2013-04-11 08:46:00,
2013-04-11 04:48:00,53.2,47.2,29.76,East,96,0.0,0.0,80,0.00,,SCT,0.00,WeatherDisplay:10.37,2013-04-11 08:48:00,
2013-04-11 04:49:00,53.2,47.2,29.76,East,96,0.0,0.0,80,0.00,,SCT,0.00,WeatherDisplay:10.37,2013-04-11 08:49:00,
2013-04-11 04:50:00,53.2,47.2,29.76,East,96,0.0,0.0,80,0.00,,SCT,0.00,WeatherDisplay:10.37,2013-04-11 08:50:00,
2013-04-11 04:51:00,53.2,47.2,29.76,East,96,0.0,0.0,80,0.00,,SCT,0.00,WeatherDisplay:10.37,2013-04-11 08:51:00,
2013-04-11 04:53:00,53.2,47.5,29.76,East,96,0.0,0.0,81,0.00,,SCT,0.00,WeatherDisplay:10.37,2013-04-11 08:53:00,
2013-04-11 04:58:00,53.3,47.6,29.76,East,96,0.0,0.0,81,0.00,,SCT,0.00,WeatherDisplay:10.37,2013-04-11 08:58:00,
2013-04-11 05:00:00,53.3,47.6,29.76,East,96,0.0,0.0,81,0.00,,SCT,0.00,WeatherDisplay:10.37,2013-04-11 09:00:00,
2013-04-11 05:01:00,53.5,47.8,29.76,East,96,0.0,0.0,81,0.00,,SCT,0.00,WeatherDisplay:10.37,2013-04-11 09:01:00,
2013-04-11 05:03:00,53.5,47.8,29.76,East,96,0.0,0.0,81,0.00,,SCT,0.00,WeatherDisplay:10.37,2013-04-11 09:03:00,
2013-04-11 05:05:00,53.6,47.9,29.76,East,96,0.0,0.0,81,0.00,,SCT,0.00,WeatherDisplay:10.37,2013-04-11 09:05:00,
2013-04-11 05:08:00,53.6,47.9,29.76,East,96,0.0,0.0,81,0.00,,SCT,0.00,WeatherDisplay:10.37,2013-04-11 09:08:00,
2013-04-11 05:10:00,53.6,47.9,29.76,East,96,0.0,0.0,81,0.00,,SCT,0.00,WeatherDisplay:10.37,2013-04-11 09:10:00,
2013-04-11 05:12:00,53.5,47.8,29.76,East,96,0.0,0.0,81,0.00,,SCT,0.00,WeatherDisplay:10.37,2013-04-11 09:12:00,
2013-04-11 05:15:00,53.5,47.8,29.76,East,96,0.0,0.0,81,0.00,,SCT,0.00,WeatherDisplay:10.37,2013-04-11 09:15:00,
2013-04-11 05:17:00,53.5,47.8,29.76,East,96,0.0,0.0,81,0.00,,SCT,0.00,WeatherDisplay:10.37,2013-04-11 09:17:00,
2013-04-11 05:19:00,53.5,47.8,29.76,East,96,0.0,0.0,81,0.00,,SCT,0.00,WeatherDisplay:10.37,2013-04-11 09:19:00,
2013-04-11 05:21:00,53.3,47.6,29.76,East,96,0.0,0.0,81,0.00,,SCT,0.00,WeatherDisplay:10.37,2013-04-11 09:21:00,
2013-04-11 05:22:00,53.3,47.6,29.76,East,96,0.0,0.0,81,0.00,,SCT,0.00,WeatherDisplay:10.37,2013-04-11 09:22:00,
2013-04-11 05:26:00,53.3,47.6,29.76,East,96,0.0,0.0,81,0.00,,SCT,0.00,WeatherDisplay:10.37,2013-04-11 09:26:00,
2013-04-11 05:27:00,53.3,47.6,29.76,East,96,0.0,0.0,81,0.00,,SCT,0.00,WeatherDisplay:10.37,2013-04-11 09:27:00,
2013-04-11 05:30:00,53.3,47.6,29.76,East,96,0.0,0.0,81,0.00,,SCT,0.00,WeatherDisplay:10.37,2013-04-11 09:30:00,
2013-04-11 05:31:00,53.3,47.6,29.76,East,96,0.0,0.0,81,0.00,,SCT,0.00,WeatherDisplay:10.37,2013-04-11 09:31:00,
2013-04-11 05:32:00,53.3,47.6,29.76,East,96,0.0,0.0,81,0.00,,SCT,0.00,WeatherDisplay:10.37,2013-04-11 09:32:00,
2013-04-11 05:34:00,53.5,47.8,29.76,East,96,0.0,0.0,81,0.00,,SCT,0.00,WeatherDisplay:10.37,2013-04-11 09:34:00,
2013-04-11 05:37:00,53.5,47.8,29.76,East,96,0.0,0.0,81,0.00,,SCT,0.00,WeatherDisplay:10.37,2013-04-11 09:37:00,
2013-04-11 05:39:00,53.5,47.8,29.76,East,96,0.0,0.0,81,0.00,,SCT,0.00,WeatherDisplay:10.37,2013-04-11 09:39:00,
2013-04-11 05:44:00,53.5,47.8,29.77,East,96,0.0,0.0,81,0.00,,SCT,0.00,WeatherDisplay:10.37,2013-04-11 09:44:00,
2013-04-11 05:45:00,53.5,47.8,29.77,East,96,0.0,0.0,81,0.00,,SCT,0.00,WeatherDisplay:10.37,2013-04-11 09:45:00,
2013-04-11 05:46:00,53.3,47.6,29.77,East,96,0.0,0.0,81,0.00,,SCT,0.00,WeatherDisplay:10.37,2013-04-11 09:46:00,
2013-04-11 05:49:00,53.3,47.6,29.77,East,96,0.0,0.0,81,0.00,,SCT,0.00,WeatherDisplay:10.37,2013-04-11 09:49:00,
2013-04-11 05:52:00,53.3,47.6,29.77,East,96,0.0,0.0,81,0.00,,SCT,0.00,WeatherDisplay:10.37,2013-04-11 09:52:00,
2013-04-11 05:53:00,53.2,47.5,29.77,East,96,0.0,0.0,81,0.00,,SCT,0.00,WeatherDisplay:10.37,2013-04-11 09:53:00,
2013-04-11 05:54:00,53.2,47.5,29.77,East,96,0.0,0.0,81,0.00,,SCT,0.00,WeatherDisplay:10.37,2013-04-11 09:54:00,
2013-04-11 05:57:00,53.2,47.5,29.77,East,96,0.0,0.0,81,0.00,,SCT,0.00,WeatherDisplay:10.37,2013-04-11 09:57:00,
2013-04-11 06:00:00,53.1,47.7,29.77,East,96,0.0,0.0,82,0.00,,SCT,0.00,WeatherDisplay:10.37,2013-04-11 10:00:00,
2013-04-11 06:01:00,53.1,47.7,29.77,East,96,0.0,0.0,82,0.00,,SCT,0.00,WeatherDisplay:10.37,2013-04-11 10:01:00,
2013-04-11 06:05:00,52.9,47.6,29.77,East,96,0.0,0.0,82,0.00,,SCT,0.00,WeatherDisplay:10.37,2013-04-11 10:05:00,
2013-04-11 06:06:00,52.9,47.6,29.77,East,96,0.0,0.0,82,0.00,,SCT,0.00,WeatherDisplay:10.37,2013-04-11 10:06:00,
2013-04-11 06:08:00,52.8,47.1,29.77,East,96,0.0,0.0,81,0.00,,SCT,0.00,WeatherDisplay:10.37,2013-04-11 10:08:00,
2013-04-11 06:12:00,52.8,47.1,29.77,East,96,0.0,0.0,81,0.00,,SCT,0.00,WeatherDisplay:10.37,2013-04-11 10:12:00,
2013-04-11 06:13:00,52.8,47.1,29.77,East,96,0.0,0.0,81,0.00,,SCT,0.00,WeatherDisplay:10.37,2013-04-11 10:13:00,
2013-04-11 06:14:00,52.6,46.9,29.77,East,96,0.0,0.0,81,0.00,,SCT,0.00,WeatherDisplay:10.37,2013-04-11 10:14:00,
2013-04-11 06:19:00,52.5,47.2,29.77,East,96,0.0,0.0,82,0.00,,SCT,0.00,WeatherDisplay:10.37,2013-04-11 10:19:00,
2013-04-11 06:21:00,52.5,47.2,29.77,East,96,0.0,0.0,82,0.00,,SCT,0.00,WeatherDisplay:10.37,2013-04-11 10:21:00,
2013-04-11 06:23:00,52.5,47.2,29.77,East,96,0.0,0.0,82,0.00,,SCT,0.00,WeatherDisplay:10.37,2013-04-11 10:23:00,
2013-04-11 06:26:00,52.5,47.2,29.77,East,96,0.0,0.0,82,0.00,,SCT,0.00,WeatherDisplay:10.37,2013-04-11 10:26:00,
2013-04-11 06:28:00,52.6,47.3,29.77,East,96,0.0,0.0,82,0.00,,SCT,0.00,WeatherDisplay:10.37,2013-04-11 10:28:00,
2013-04-11 06:31:00,52.6,47.3,29.77,East,96,0.0,0.0,82,0.00,,SCT,0.00,WeatherDisplay:10.37,2013-04-11 10:31:00,
2013-04-11 06:32:00,52.6,47.3,29.77,East,96,0.0,0.0,82,0.00,,SCT,0.00,WeatherDisplay:10.37,2013-04-11 10:32:00,
2013-04-11 06:33:00,52.8,47.5,29.77,East,96,0.0,0.0,82,0.00,,SCT,0.00,WeatherDisplay:10.37,2013-04-11 10:33:00,
2013-04-11 06:36:00,52.8,47.5,29.77,East,96,0.0,0.0,82,0.00,,SCT,0.00,WeatherDisplay:10.37,2013-04-11 10:36:00,
2013-04-11 06:38:00,52.8,47.5,29.77,East,96,0.0,0.0,82,0.00,,SCT,0.00,WeatherDisplay:10.37,2013-04-11 10:38:00,
2013-04-11 06:39:00,52.8,47.5,29.77,East,96,0.0,0.0,82,0.00,,SCT,0.00,WeatherDisplay:10.37,2013-04-11 10:39:00,
2013-04-11 06:44:00,52.8,47.5,29.77,East,96,0.0,0.0,82,0.00,,SCT,0.00,WeatherDisplay:10.37,2013-04-11 10:44:00,
2013-04-11 06:45:00,52.8,47.8,29.77,East,96,0.0,0.0,83,0.00,,SCT,0.00,WeatherDisplay:10.37,2013-04-11 10:45:00,
2013-04-11 06:46:00,52.8,47.8,29.77,East,96,0.0,0.0,83,0.00,,SCT,0.00,WeatherDisplay:10.37,2013-04-11 10:46:00,
2013-04-11 06:50:00,52.8,47.8,29.77,East,96,0.0,0.0,83,0.00,,SCT,0.00,WeatherDisplay:10.37,2013-04-11 10:50:00,
2013-04-11 06:51:00,52.8,47.5,29.77,East,96,0.0,0.0,82,0.00,,SCT,0.00,WeatherDisplay:10.37,2013-04-11 10:51:00,
2013-04-11 06:55:00,52.6,47.6,29.77,East,96,0.0,0.0,83,0.00,,SCT,0.00,WeatherDisplay:10.37,2013-04-11 10:55:00,
2013-04-11 06:56:00,52.6,47.6,29.77,East,96,0.0,0.0,83,0.00,,SCT,0.00,WeatherDisplay:10.37,2013-04-11 10:56:00,
2013-04-11 07:00:00,52.5,47.2,29.78,East,95,0.0,0.0,82,0.00,,SCT,0.00,WeatherDisplay:10.37,2013-04-11 11:00:00,
2013-04-11 07:01:00,52.5,47.2,29.78,East,95,0.0,0.0,82,0.00,,SCT,0.00,WeatherDisplay:10.37,2013-04-11 11:01:00,
2013-04-11 07:02:00,52.5,47.2,29.78,East,95,0.0,0.0,82,0.00,,SCT,0.00,WeatherDisplay:10.37,2013-04-11 11:02:00,
2013-04-11 07:05:00,52.3,47.3,29.78,East,95,0.0,0.0,83,0.00,,SCT,0.00,WeatherDisplay:10.37,2013-04-11 11:05:00,
2013-04-11 07:07:00,52.3,47.3,29.79,East,95,0.0,0.0,83,0.00,,SCT,0.00,WeatherDisplay:10.37,2013-04-11 11:07:00,
2013-04-11 07:10:00,52.3,47.0,29.79,East,95,0.0,0.0,82,0.00,,SCT,0.00,WeatherDisplay:10.37,2013-04-11 11:10:00,
2013-04-11 07:11:00,52.3,47.0,29.79,East,95,0.0,0.0,82,0.00,,SCT,0.00,WeatherDisplay:10.37,2013-04-11 11:11:00,
2013-04-11 07:12:00,52.3,47.0,29.79,ENE,71,0.0,0.0,82,0.00,,SCT,0.00,WeatherDisplay:10.37,2013-04-11 11:12:00,
2013-04-11 07:14:00,52.3,47.0,29.80,ENE,71,0.0,0.0,82,0.00,,SCT,0.00,WeatherDisplay:10.37,2013-04-11 11:14:00,
2013-04-11 07:16:00,52.2,46.9,29.80,ENE,71,0.0,0.0,82,0.00,,SCT,0.00,WeatherDisplay:10.37,2013-04-11 11:16:00,
2013-04-11 07:19:00,52.2,46.9,29.80,ENE,71,0.0,0.0,82,0.00,,SCT,0.00,WeatherDisplay:10.37,2013-04-11 11:19:00,
2013-04-11 07:21:00,52.2,46.9,29.80,East,87,0.0,0.0,82,0.00,,SCT,0.00,WeatherDisplay:10.37,2013-04-11 11:21:00,
2013-04-11 07:23:00,52.2,47.2,29.80,East,83,0.0,0.0,83,0.00,,SCT,0.00,WeatherDisplay:10.37,2013-04-11 11:23:00,
2013-04-11 07:24:00,52.2,47.2,29.80,East,83,0.0,0.0,83,0.00,,SCT,0.00,WeatherDisplay:10.37,2013-04-11 11:24:00,
2013-04-11 07:29:00,52.0,47.0,29.80,South,182,0.0,0.0,83,0.00,,SCT,0.00,WeatherDisplay:10.37,2013-04-11 11:29:00,
2013-04-11 07:32:00,52.0,47.0,29.80,SSE,157,0.0,0.0,83,0.00,,SCT,0.00,WeatherDisplay:10.37,2013-04-11 11:32:00,
2013-04-11 07:35:00,52.2,47.2,29.80,South,180,0.0,0.0,83,0.00,,SCT,0.00,WeatherDisplay:10.37,2013-04-11 11:35:00,
2013-04-11 07:37:00,52.2,47.2,29.80,South,180,0.0,0.0,83,0.00,,SCT,0.00,WeatherDisplay:10.37,2013-04-11 11:37:00,
2013-04-11 07:40:00,52.2,47.2,29.80,South,178,0.0,0.0,83,0.00,,SCT,0.00,WeatherDisplay:10.37,2013-04-11 11:40:00,
2013-04-11 07:41:00,52.2,47.2,29.80,South,178,0.0,0.0,83,0.00,,SCT,0.00,WeatherDisplay:10.37,2013-04-11 11:41:00,
2013-04-11 07:44:00,52.3,47.3,29.80,SSW,207,0.0,0.0,83,0.00,,SCT,0.00,WeatherDisplay:10.37,2013-04-11 11:44:00,
2013-04-11 07:45:00,52.3,47.3,29.80,SSW,207,0.0,0.0,83,0.00,,SCT,0.00,WeatherDisplay:10.37,2013-04-11 11:45:00,
2013-04-11 07:47:00,52.3,47.3,29.80,SSW,207,0.0,0.0,83,0.00,,SCT,0.00,WeatherDisplay:10.37,2013-04-11 11:47:00,
2013-04-11 07:48:00,52.3,47.3,29.80,SSW,207,0.0,0.0,83,0.00,,SCT,0.00,WeatherDisplay:10.37,2013-04-11 11:48:00,
2013-04-11 07:50:00,52.3,47.3,29.80,SSW,207,0.0,0.0,83,0.00,,SCT,0.00,WeatherDisplay:10.37,2013-04-11 11:50:00,
2013-04-11 07:54:00,52.2,47.2,29.80,SSW,207,0.0,0.0,83,0.00,,SCT,0.00,WeatherDisplay:10.37,2013-04-11 11:54:00,
2013-04-11 07:55:00,52.2,47.2,29.80,SSW,207,0.0,0.0,83,0.00,,SCT,0.00,WeatherDisplay:10.37,2013-04-11 11:55:00,
2013-04-11 08:00:00,52.2,47.2,29.81,NW,304,0.0,0.0,83,0.00,,SCT,0.00,WeatherDisplay:10.37,2013-04-11 12:00:00,
2013-04-11 08:01:00,52.3,47.3,29.81,NW,304,0.0,0.0,83,0.00,,SCT,0.00,WeatherDisplay:10.37,2013-04-11 12:01:00,
2013-04-11 08:06:00,52.3,47.3,29.81,NW,304,0.0,0.0,83,0.00,CLR,SCT,0.00,WeatherDisplay:10.37,2013-04-11 12:06:00,
2013-04-11 08:08:00,52.3,47.3,29.82,NW,304,0.0,0.0,83,0.00,CLR,SCT,0.00,WeatherDisplay:10.37,2013-04-11 12:08:00,
2013-04-11 08:09:00,52.5,47.5,29.82,SW,230,0.0,0.0,83,0.00,CLR,SCT,0.00,WeatherDisplay:10.37,2013-04-11 12:09:00,
2013-04-11 08:11:00,52.5,47.5,29.82,SW,228,0.0,0.0,83,0.00,CLR,SCT,0.00,WeatherDisplay:10.37,2013-04-11 12:11:00,
2013-04-11 08:13:00,52.5,47.5,29.82,SW,228,0.0,0.0,83,0.00,CLR,SCT,0.00,WeatherDisplay:10.37,2013-04-11 12:13:00,
2013-04-11 08:14:00,52.6,47.6,29.81,SW,228,0.0,0.0,83,0.00,CLR,SCT,0.00,WeatherDisplay:10.37,2013-04-11 12:14:00,
2013-04-11 08:16:00,52.6,47.6,29.81,SSE,154,0.0,0.0,83,0.00,CLR,SCT,0.00,WeatherDisplay:10.37,2013-04-11 12:16:00,
2013-04-11 08:19:00,52.8,48.1,29.82,SSE,148,0.0,0.0,84,0.00,CLR,SCT,0.00,WeatherDisplay:10.37,2013-04-11 12:19:00,
2013-04-11 08:20:00,52.8,48.1,29.82,South,170,0.0,0.0,84,0.00,CLR,SCT,0.00,WeatherDisplay:10.37,2013-04-11 12:20:00,
2013-04-11 08:21:00,52.9,48.2,29.81,South,170,0.0,0.0,84,0.00,CLR,SCT,0.00,WeatherDisplay:10.37,2013-04-11 12:21:00,
2013-04-11 08:25:00,53.2,48.5,29.82,SSE,150,0.0,0.0,84,0.00,CLR,SCT,0.00,WeatherDisplay:10.37,2013-04-11 12:25:00,
2013-04-11 08:26:00,53.3,48.6,29.82,SSE,150,0.0,0.0,84,0.00,CLR,SCT,0.00,WeatherDisplay:10.37,2013-04-11 12:26:00,
2013-04-11 08:29:00,53.9,49.5,29.81,SSE,151,0.0,0.0,85,0.00,CLR,SCT,0.00,WeatherDisplay:10.37,2013-04-11 12:29:00,
2013-04-11 08:32:00,54.5,50.1,29.81,SSE,150,0.0,0.0,85,0.00,CLR,SCT,0.00,WeatherDisplay:10.37,2013-04-11 12:32:00,
2013-04-11 08:34:00,54.8,50.4,29.81,SSE,151,0.0,0.0,85,0.00,CLR,SCT,0.00,WeatherDisplay:10.37,2013-04-11 12:34:00,
2013-04-11 08:35:00,55.1,50.7,29.81,SSE,151,0.0,0.0,85,0.00,CLR,SCT,0.00,WeatherDisplay:10.37,2013-04-11 12:35:00,
2013-04-11 08:39:00,55.9,51.5,29.81,SSE,150,0.0,0.0,85,0.00,CLR,SCT,0.00,WeatherDisplay:10.37,2013-04-11 12:39:00,
2013-04-11 08:42:00,56.6,52.1,29.81,SSE,150,0.0,0.0,85,0.00,CLR,SCT,0.00,WeatherDisplay:10.37,2013-04-11 12:42:00,
2013-04-11 08:43:00,56.7,52.2,29.81,SE,134,0.0,0.0,85,0.00,CLR,SCT,0.00,WeatherDisplay:10.37,2013-04-11 12:43:00,
2013-04-11 08:44:00,57.0,52.5,29.80,ENE,65,0.0,0.0,85,0.00,CLR,SCT,0.00,WeatherDisplay:10.37,2013-04-11 12:44:00,
2013-04-11 08:46:00,57.5,53.0,29.80,ENE,65,0.0,0.0,85,0.00,CLR,SCT,0.00,WeatherDisplay:10.37,2013-04-11 12:46:00,
2013-04-11 08:47:00,57.6,53.1,29.80,ENE,65,0.0,0.0,85,0.00,CLR,SCT,0.00,WeatherDisplay:10.37,2013-04-11 12:47:00,
2013-04-11 08:48:00,58.0,53.5,29.80,ENE,65,0.0,0.0,85,0.00,CLR,SCT,0.00,WeatherDisplay:10.37,2013-04-11 12:48:00,
2013-04-11 08:52:00,58.9,54.4,29.80,ENE,65,0.0,0.0,85,0.00,CLR,SCT,0.00,WeatherDisplay:10.37,2013-04-11 12:52:00,
2013-04-11 08:53:00,59.0,54.5,29.80,ENE,65,0.0,0.0,85,0.00,CLR,SCT,0.00,WeatherDisplay:10.37,2013-04-11 12:53:00,
2013-04-11 08:54:00,59.3,54.8,29.80,ENE,65,0.0,0.0,85,0.00,CLR,SCT,0.00,WeatherDisplay:10.37,2013-04-11 12:54:00,
2013-04-11 08:58:00,60.2,55.7,29.80,ENE,65,0.0,0.0,85,0.00,CLR,SCT,0.00,WeatherDisplay:10.37,2013-04-11 12:58:00,
2013-04-11 08:59:00,60.4,55.9,29.80,ENE,65,0.0,0.0,85,0.00,CLR,SCT,0.00,WeatherDisplay:10.37,2013-04-11 12:59:00,
2013-04-11 09:00:00,60.5,56.0,29.80,ENE,65,0.0,0.0,85,0.00,CLR,SCT,0.00,WeatherDisplay:10.37,2013-04-11 13:00:00,
2013-04-11 09:03:00,61.3,56.8,29.80,ENE,65,0.0,0.0,85,0.00,CLR,SCT,0.00,WeatherDisplay:10.37,2013-04-11 13:03:00,
2013-04-11 09:06:00,62.0,57.4,29.80,ESE,113,0.0,0.0,85,0.00,,SCT,0.00,WeatherDisplay:10.37,2013-04-11 13:06:00,
2013-04-11 09:08:00,62.4,57.8,29.80,East,92,0.0,0.0,85,0.00,,SCT,0.00,WeatherDisplay:10.37,2013-04-11 13:08:00,
2013-04-11 09:09:00,62.4,57.5,29.80,East,90,0.0,0.0,84,0.00,,SCT,0.00,WeatherDisplay:10.37,2013-04-11 13:09:00,
2013-04-11 09:13:00,63.1,58.2,29.80,NE,49,0.0,0.0,84,0.00,,SCT,0.00,WeatherDisplay:10.37,2013-04-11 13:13:00,
2013-04-11 09:14:00,63.2,58.3,29.80,NE,49,0.0,0.0,84,0.00,,SCT,0.00,WeatherDisplay:10.37,2013-04-11 13:14:00,
2013-04-11 09:16:00,63.4,58.5,29.80,NE,49,0.0,0.0,84,0.00,,SCT,0.00,WeatherDisplay:10.37,2013-04-11 13:16:00,
2013-04-11 09:17:00,63.5,58.6,29.80,NE,49,0.0,0.0,84,0.00,,SCT,0.00,WeatherDisplay:10.37,2013-04-11 13:17:00,
2013-04-11 09:22:00,63.9,58.6,29.79,ESE,113,0.0,0.0,83,0.00,,SCT,0.00,WeatherDisplay:10.37,2013-04-11 13:22:00,
2013-04-11 09:23:00,63.9,58.6,29.79,ESE,113,0.0,0.0,83,0.00,,SCT,0.00,WeatherDisplay:10.37,2013-04-11 13:23:00,
2013-04-11 09:24:00,63.9,58.6,29.79,ESE,113,0.0,0.0,83,0.00,,SCT,0.00,WeatherDisplay:10.37,2013-04-11 13:24:00,
2013-04-11 09:28:00,64.2,58.9,29.79,ESE,119,0.0,0.0,83,0.00,,SCT,0.00,WeatherDisplay:10.37,2013-04-11 13:28:00,
2013-04-11 09:29:00,64.2,58.9,29.79,ESE,119,0.0,0.0,83,0.00,,SCT,0.00,WeatherDisplay:10.37,2013-04-11 13:29:00,
2013-04-11 09:30:00,64.3,59.0,29.79,ESE,119,0.0,0.0,83,0.00,,SCT,0.00,WeatherDisplay:10.37,2013-04-11 13:30:00,
2013-04-11 09:33:00,64.7,59.4,29.78,SSE,147,0.0,0.0,83,0.00,,SCT,0.00,WeatherDisplay:10.37,2013-04-11 13:33:00,
2013-04-11 09:34:00,64.7,59.4,29.78,SSE,147,0.0,0.0,83,0.00,,SCT,0.00,WeatherDisplay:10.37,2013-04-11 13:34:00,
2013-04-11 09:35:00,64.8,59.5,29.78,South,174,0.0,0.0,83,0.00,,SCT,0.00,WeatherDisplay:10.37,2013-04-11 13:35:00,
2013-04-11 09:39:00,65.5,60.2,29.78,South,174,0.0,0.0,83,0.00,,SCT,0.00,WeatherDisplay:10.37,2013-04-11 13:39:00,
2013-04-11 09:41:00,66.0,60.7,29.78,South,174,0.0,0.0,83,0.00,,SCT,0.00,WeatherDisplay:10.37,2013-04-11 13:41:00,
2013-04-11 09:44:00,66.4,61.1,29.78,South,174,0.0,0.0,83,0.00,,SCT,0.00,WeatherDisplay:10.37,2013-04-11 13:44:00,
2013-04-11 09:46:00,66.9,61.6,29.78,South,174,0.0,0.0,83,0.00,,SCT,0.00,WeatherDisplay:10.37,2013-04-11 13:46:00,
2013-04-11 09:48:00,67.4,62.1,29.78,South,174,0.0,0.0,83,0.00,,SCT,0.00,WeatherDisplay:10.37,2013-04-11 13:48:00,
2013-04-11 09:49:00,67.6,61.9,29.78,South,172,0.0,0.0,82,0.00,,SCT,0.00,WeatherDisplay:10.37,2013-04-11 13:49:00,
2013-04-11 09:50:00,67.8,62.1,29.77,SSE,156,0.0,0.0,82,0.00,,SCT,0.00,WeatherDisplay:10.37,2013-04-11 13:50:00,
2013-04-11 09:53:00,68.4,62.3,29.77,SSE,156,0.0,0.0,81,0.00,,SCT,0.00,WeatherDisplay:10.37,2013-04-11 13:53:00,
2013-04-11 09:54:00,68.6,62.5,29.77,SSE,163,0.0,0.0,81,0.00,,SCT,0.00,WeatherDisplay:10.37,2013-04-11 13:54:00,
2013-04-11 09:55:00,68.8,62.7,29.77,SSE,163,5.0,5.0,81,0.00,,SCT,0.00,WeatherDisplay:10.37,2013-04-11 13:55:00,
2013-04-11 09:58:00,69.1,61.9,29.77,SW,235,3.5,3.5,78,0.00,,SCT,0.00,WeatherDisplay:10.37,2013-04-11 13:58:00,
2013-04-11 10:00:00,69.3,61.8,29.77,South,177,3.5,3.5,77,0.00,,SCT,0.00,WeatherDisplay:10.37,2013-04-11 14:00:00,
2013-04-11 10:02:00,69.6,61.7,29.77,SSW,196,4.0,4.0,76,0.00,,SCT,0.00,WeatherDisplay:10.37,2013-04-11 14:02:00,
2013-04-11 10:05:00,69.9,61.6,29.77,SSW,198,1.1,1.1,75,0.00,,SCT,0.00,WeatherDisplay:10.37,2013-04-11 14:05:00,
2013-04-11 10:07:00,70.1,61.0,29.77,West,267,3.5,3.5,73,0.00,,SCT,0.00,WeatherDisplay:10.37,2013-04-11 14:07:00,
2013-04-11 10:08:00,70.3,61.2,29.77,SW,224,13.8,13.8,73,0.00,,SCT,0.00,WeatherDisplay:10.37,2013-04-11 14:08:00,
2013-04-11 10:13:00,70.8,60.9,29.77,SW,223,10.4,10.4,71,0.00,,SCT,0.00,WeatherDisplay:10.37,2013-04-11 14:13:00,
2013-04-11 10:14:00,70.9,60.6,29.77,SSW,211,11.5,11.5,70,0.00,,SCT,0.00,WeatherDisplay:10.37,2013-04-11 14:14:00,
2013-04-11 10:17:00,71.3,60.6,29.77,SSW,205,1.1,1.1,69,0.00,,SCT,0.00,WeatherDisplay:10.37,2013-04-11 14:17:00,
2013-04-11 10:18:00,71.3,61.0,29.77,SSW,202,5.0,5.0,70,0.00,,SCT,0.00,WeatherDisplay:10.37,2013-04-11 14:18:00,
2013-04-11 10:21:00,71.6,60.9,29.77,SW,232,4.6,4.6,69,0.00,,SCT,0.00,WeatherDisplay:10.37,2013-04-11 14:21:00,
2013-04-11 10:22:00,71.6,60.5,29.77,West,271,7.0,7.0,68,0.00,,SCT,0.00,WeatherDisplay:10.37,2013-04-11 14:22:00,
2013-04-11 10:24:00,71.8,59.8,29.77,SW,227,10.4,10.4,66,0.00,,SCT,0.00,WeatherDisplay:10.37,2013-04-11 14:24:00,
2013-04-11 10:27:00,72.1,60.1,29.77,West,281,6.9,6.9,66,0.00,,SCT,0.00,WeatherDisplay:10.37,2013-04-11 14:27:00,
2013-04-11 10:29:00,72.3,59.9,29.77,SW,218,11.0,11.0,65,0.00,,SCT,0.00,WeatherDisplay:10.37,2013-04-11 14:29:00,
2013-04-11 10:32:00,72.5,60.1,29.77,SSW,209,10.4,10.4,65,0.00,,SCT,0.00,WeatherDisplay:10.37,2013-04-11 14:32:00,
2013-04-11 10:34:00,72.7,60.3,29.76,South,177,6.9,6.9,65,0.00,,SCT,0.00,WeatherDisplay:10.37,2013-04-11 14:34:00,
2013-04-11 10:35:00,72.7,60.3,29.76,South,177,10.4,10.4,65,0.00,,SCT,0.00,WeatherDisplay:10.37,2013-04-11 14:35:00,
2013-04-11 10:36:00,72.8,60.3,29.76,West,265,4.0,4.0,65,0.00,,SCT,0.00,WeatherDisplay:10.37,2013-04-11 14:36:00,
2013-04-11 10:40:00,73.0,59.2,29.76,SW,236,11.5,11.5,62,0.00,,SCT,0.00,WeatherDisplay:10.37,2013-04-11 14:40:00,
2013-04-11 10:42:00,73.2,59.4,29.76,WSW,243,11.5,11.5,62,0.00,,SCT,0.00,WeatherDisplay:10.37,2013-04-11 14:42:00,
2013-04-11 10:43:00,73.2,58.9,29.76,West,263,11.5,11.5,61,0.00,,SCT,0.00,WeatherDisplay:10.37,2013-04-11 14:43:00,
2013-04-11 10:45:00,73.2,58.9,29.76,WSW,255,11.5,11.5,61,0.00,,SCT,0.00,WeatherDisplay:10.37,2013-04-11 14:45:00,
2013-04-11 10:50:00,73.3,59.9,29.76,South,171,11.0,11.0,63,0.00,,SCT,0.00,WeatherDisplay:10.37,2013-04-11 14:50:00,
2013-04-11 10:51:00,73.3,59.5,29.76,South,187,12.7,12.7,62,0.00,,SCT,0.00,WeatherDisplay:10.37,2013-04-11 14:51:00,
2013-04-11 10:52:00,73.5,59.2,29.76,SW,215,12.7,12.7,61,0.00,,SCT,0.00,WeatherDisplay:10.37,2013-04-11 14:52:00,
2013-04-11 10:55:00,73.7,59.4,29.76,SSW,196,10.4,10.4,61,0.00,,SCT,0.00,WeatherDisplay:10.37,2013-04-11 14:55:00,
2013-04-11 10:57:00,73.9,59.1,29.76,SSW,200,13.8,13.8,60,0.00,,SCT,0.00,WeatherDisplay:10.37,2013-04-11 14:57:00,
2013-04-11 11:00:00,74.0,58.8,29.76,West,259,11.5,11.5,59,0.00,,SCT,0.00,WeatherDisplay:10.37,2013-04-11 15:00:00,
2013-04-11 11:02:00,73.9,58.2,29.76,West,262,10.4,10.4,58,0.00,,SCT,0.00,WeatherDisplay:10.37,2013-04-11 15:02:00,
2013-04-11 11:05:00,73.7,58.9,29.76,WSW,257,7.0,7.0,60,0.00,,SCT,0.00,WeatherDisplay:10.37,2013-04-11 15:05:00,
2013-04-11 11:08:00,73.5,57.8,29.76,WSW,257,11.5,11.5,58,0.00,,SCT,0.00,WeatherDisplay:10.37,2013-04-11 15:08:00,
2013-04-11 11:12:00,73.2,57.5,29.76,SW,235,10.4,10.4,58,0.00,,SCT,0.00,WeatherDisplay:10.37,2013-04-11 15:12:00,
2013-04-11 11:13:00,73.2,57.5,29.76,SW,236,6.9,6.9,58,0.00,,SCT,0.00,WeatherDisplay:10.37,2013-04-11 15:13:00,
2013-04-11 11:18:00,73.0,58.3,29.76,West,262,5.0,5.0,60,0.00,,SCT,0.00,WeatherDisplay:10.37,2013-04-11 15:18:00,
2013-04-11 11:19:00,73.0,57.8,29.76,West,259,5.8,5.8,59,0.00,,SCT,0.00,WeatherDisplay:10.37,2013-04-11 15:19:00,
2013-04-11 11:23:00,73.2,58.5,29.76,WSW,252,4.0,4.0,60,0.00,,SCT,0.00,WeatherDisplay:10.37,2013-04-11 15:23:00,
2013-04-11 11:25:00,73.3,58.1,29.76,West,270,8.1,8.1,59,0.00,,SCT,0.00,WeatherDisplay:10.37,2013-04-11 15:25:00,
2013-04-11 11:29:00,73.5,57.8,29.75,West,273,6.0,6.0,58,0.00,,SCT,0.00,WeatherDisplay:10.37,2013-04-11 15:29:00,
2013-04-11 11:30:00,73.5,57.8,29.75,West,272,5.8,5.8,58,0.00,,SCT,0.00,WeatherDisplay:10.37,2013-04-11 15:30:00,
2013-04-11 11:35:00,73.9,58.2,29.75,West,261,7.0,7.0,58,0.00,,SCT,0.00,WeatherDisplay:10.37,2013-04-11 15:35:00,
2013-04-11 11:39:00,74.0,57.8,29.75,West,266,10.4,10.4,57,0.00,,SCT,0.00,WeatherDisplay:10.37,2013-04-11 15:39:00,
2013-04-11 11:41:00,74.0,57.8,29.75,West,259,5.8,5.8,57,0.00,,SCT,0.00,WeatherDisplay:10.37,2013-04-11 15:41:00,
2013-04-11 11:43:00,74.2,58.0,29.75,SW,226,4.0,4.0,57,0.00,,SCT,0.00,WeatherDisplay:10.37,2013-04-11 15:43:00,
2013-04-11 11:44:00,74.2,58.5,29.75,SW,221,4.0,4.0,58,0.00,,SCT,0.00,WeatherDisplay:10.37,2013-04-11 15:44:00,
2013-04-11 11:48:00,74.4,58.7,29.75,South,178,5.8,5.8,58,0.00,,SCT,0.00,WeatherDisplay:10.37,2013-04-11 15:48:00,
2013-04-11 11:51:00,74.6,58.4,29.75,SE,144,6.9,6.9,57,0.00,,SCT,0.00,WeatherDisplay:10.37,2013-04-11 15:51:00,
2013-04-11 11:53:00,74.7,58.9,29.75,SE,144,1.1,1.1,58,0.00,,SCT,0.00,WeatherDisplay:10.37,2013-04-11 15:53:00,
2013-04-11 11:59:00,74.9,59.1,29.74,WSW,239,1.1,1.1,58,0.00,,SCT,0.00,WeatherDisplay:10.37,2013-04-11 15:59:00,
2013-04-11 12:04:00,74.9,58.6,29.74,SSW,213,4.0,4.0,57,0.00,,SCT,0.00,WeatherDisplay:10.37,2013-04-11 16:04:00,
2013-04-11 12:06:00,75.1,58.8,29.74,SSW,209,3.5,3.5,57,0.00,,SCT,0.00,WeatherDisplay:10.37,2013-04-11 16:06:00,
2013-04-11 12:08:00,75.1,59.3,29.74,SSW,209,0.0,0.0,58,0.00,,SCT,0.00,WeatherDisplay:10.37,2013-04-11 16:08:00,
2013-04-11 12:10:00,75.1,58.8,29.74,WSW,248,4.6,4.6,57,0.00,,SCT,0.00,WeatherDisplay:10.37,2013-04-11 16:10:00,
2013-04-11 12:12:00,75.3,59.0,29.74,WNW,301,4.6,4.6,57,0.00,,SCT,0.00,WeatherDisplay:10.37,2013-04-11 16:12:00,
2013-04-11 12:15:00,75.6,59.3,29.74,West,279,4.6,4.6,57,0.00,,SCT,0.00,WeatherDisplay:10.37,2013-04-11 16:15:00,
2013-04-11 12:17:00,75.8,59.0,29.74,South,176,3.5,3.5,56,0.00,,SCT,0.00,WeatherDisplay:10.37,2013-04-11 16:17:00,
2013-04-11 12:19:00,76.0,59.2,29.74,SSW,193,6.9,6.9,56,0.00,,SCT,0.00,WeatherDisplay:10.37,2013-04-11 16:19:00,
2013-04-11 12:20:00,76.1,58.8,29.74,WSW,238,8.1,8.1,55,0.00,,SCT,0.00,WeatherDisplay:10.37,2013-04-11 16:20:00,
2013-04-11 12:25:00,76.3,58.4,29.74,West,265,3.5,3.5,54,0.00,,SCT,0.00,WeatherDisplay:10.37,2013-04-11 16:25:00,
2013-04-11 12:26:00,76.3,58.4,29.73,West,278,3.5,3.5,54,0.00,,SCT,0.00,WeatherDisplay:10.37,2013-04-11 16:26:00,
2013-04-11 12:28:00,76.5,58.6,29.73,South,190,3.5,3.5,54,0.00,,SCT,0.00,WeatherDisplay:10.37,2013-04-11 16:28:00,
2013-04-11 12:32:00,76.5,58.1,29.73,SW,234,10.4,10.4,53,0.00,,SCT,0.00,WeatherDisplay:10.37,2013-04-11 16:32:00,
2013-04-11 12:36:00,76.7,58.8,29.72,SSW,200,6.0,6.0,54,0.00,,SCT,0.00,WeatherDisplay:10.37,2013-04-11 16:36:00,
2013-04-11 12:38:00,76.8,57.8,29.72,South,179,5.8,5.8,52,0.00,,SCT,0.00,WeatherDisplay:10.37,2013-04-11 16:38:00,
2013-04-11 12:41:00,76.8,58.4,29.72,SW,215,1.1,1.1,53,0.00,,SCT,0.00,WeatherDisplay:10.37,2013-04-11 16:41:00,
2013-04-11 12:43:00,77.0,58.0,29.72,SW,217,4.6,4.6,52,0.00,,SCT,0.00,WeatherDisplay:10.37,2013-04-11 16:43:00,
2013-04-11 12:44:00,77.0,58.0,29.72,SW,217,3.5,0.0,52,0.00,,SCT,0.00,WeatherDisplay:10.37,2013-04-11 16:44:00,
2013-04-11 12:46:00,77.0,58.6,29.72,SSW,211,3.0,3.0,53,0.00,,SCT,0.00,WeatherDisplay:10.37,2013-04-11 16:46:00,
2013-04-11 12:49:00,77.2,58.7,29.71,SSE,158,4.6,4.6,53,0.00,,SCT,0.00,WeatherDisplay:10.37,2013-04-11 16:49:00,
2013-04-11 12:54:00,77.4,58.4,29.71,SSW,202,1.1,1.1,52,0.00,,SCT,0.00,WeatherDisplay:10.37,2013-04-11 16:54:00,
2013-04-11 12:56:00,77.6,58.6,29.71,WSW,239,5.0,5.0,52,0.00,,SCT,0.00,WeatherDisplay:10.37,2013-04-11 16:56:00,
2013-04-11 12:58:00,77.7,58.1,29.71,SSW,204,5.0,5.0,51,0.00,,SCT,0.00,WeatherDisplay:10.37,2013-04-11 16:58:00,
2013-04-11 13:02:00,77.9,57.8,29.71,West,259,10.4,10.4,50,0.00,,SCT,0.00,WeatherDisplay:10.37,2013-04-11 17:02:00,
2013-04-11 13:03:00,77.9,57.8,29.71,West,259,5.8,5.8,50,0.00,,SCT,0.00,WeatherDisplay:10.37,2013-04-11 17:03:00,
2013-04-11 13:07:00,77.9,57.8,29.70,South,188,4.0,4.0,50,0.00,,SCT,0.00,WeatherDisplay:10.37,2013-04-11 17:07:00,
2013-04-11 13:13:00,77.7,57.0,29.70,West,266,7.0,7.2,49,0.00,,SCT,0.00,WeatherDisplay:10.37,2013-04-11 17:13:00,
2013-04-11 13:18:00,77.7,57.6,29.69,West,280,8.1,8.1,50,0.00,,SCT,0.00,WeatherDisplay:10.37,2013-04-11 17:18:00,
2013-04-11 13:21:00,77.7,56.4,29.69,SW,215,11.5,11.5,48,0.00,,SCT,0.00,WeatherDisplay:10.37,2013-04-11 17:21:00,
2013-04-11 13:23:00,77.9,56.6,29.69,West,266,9.2,9.2,48,0.00,,SCT,0.00,WeatherDisplay:10.37,2013-04-11 17:23:00,
2013-04-11 13:28:00,78.3,57.6,29.69,SSE,155,9.2,9.2,49,0.00,,SCT,0.00,WeatherDisplay:10.37,2013-04-11 17:28:00,
2013-04-11 13:31:00,78.5,56.6,29.69,SW,216,9.2,9.2,47,0.00,,SCT,0.00,WeatherDisplay:10.37,2013-04-11 17:31:00,
2013-04-11 13:34:00,78.6,57.3,29.68,West,269,9.2,9.2,48,0.00,,SCT,0.00,WeatherDisplay:10.37,2013-04-11 17:34:00,
2013-04-11 13:37:00,78.6,55.5,29.68,South,188,13.8,13.8,45,0.00,,SCT,0.00,WeatherDisplay:10.37,2013-04-11 17:37:00,
2013-04-11 13:43:00,78.6,55.5,29.68,SW,230,11.5,11.5,45,0.00,,SCT,0.00,WeatherDisplay:10.37,2013-04-11 17:43:00,
2013-04-11 13:46:00,78.8,56.3,29.68,SE,137,10.4,10.4,46,0.00,,SCT,0.00,WeatherDisplay:10.37,2013-04-11 17:46:00,
2013-04-11 13:49:00,79.0,56.5,29.67,South,174,4.6,4.9,46,0.00,,SCT,0.00,WeatherDisplay:10.37,2013-04-11 17:49:00,
2013-04-11 13:54:00,79.0,54.6,29.67,SSW,200,14.0,14.0,43,0.00,,SCT,0.00,WeatherDisplay:10.37,2013-04-11 17:54:00,
2013-04-11 13:55:00,79.0,54.6,29.68,SSW,202,16.1,16.1,43,0.00,,SCT,0.00,WeatherDisplay:10.37,2013-04-11 17:55:00,
2013-04-11 13:56:00,79.0,55.2,29.67,SSW,208,13.8,13.8,44,0.00,,SCT,0.00,WeatherDisplay:10.37,2013-04-11 17:56:00,
2013-04-11 14:00:00,78.8,55.7,29.67,SSW,208,4.6,4.6,45,0.00,,SCT,0.00,WeatherDisplay:10.37,2013-04-11 18:00:00,
2013-04-11 14:01:00,78.8,56.3,29.67,SSE,153,6.9,6.9,46,0.00,,SCT,0.00,WeatherDisplay:10.37,2013-04-11 18:01:00,
2013-04-11 14:05:00,79.0,56.5,29.67,SE,146,9.2,9.2,46,0.00,,SCT,0.00,WeatherDisplay:10.37,2013-04-11 18:05:00,
2013-04-11 14:06:00,79.0,56.5,29.67,SSE,153,5.8,5.8,46,0.00,,SCT,0.00,WeatherDisplay:10.37,2013-04-11 18:06:00,
2013-04-11 14:07:00,79.0,55.8,29.67,SSE,154,9.2,9.2,45,0.00,,SCT,0.00,WeatherDisplay:10.37,2013-04-11 18:07:00,
2013-04-11 14:10:00,79.2,56.0,29.67,SSE,154,5.8,5.8,45,0.00,,SCT,0.00,WeatherDisplay:10.37,2013-04-11 18:10:00,
2013-04-11 14:12:00,79.2,56.0,29.67,WSW,249,7.0,7.0,45,0.00,,SCT,0.00,WeatherDisplay:10.37,2013-04-11 18:12:00,
2013-04-11 14:13:00,79.4,55.6,29.67,SW,217,10.0,10.0,44,0.00,,SCT,0.00,WeatherDisplay:10.37,2013-04-11 18:13:00,
2013-04-11 14:15:00,79.6,55.8,29.66,WSW,254,5.8,5.8,44,0.00,,SCT,0.00,WeatherDisplay:10.37,2013-04-11 18:15:00,
2013-04-11 14:16:00,79.6,55.8,29.66,SW,215,6.9,6.9,44,0.00,,SCT,0.00,WeatherDisplay:10.37,2013-04-11 18:16:00,
2013-04-11 14:20:00,79.6,55.8,29.66,SW,227,0.0,0.0,44,0.00,,SCT,0.00,WeatherDisplay:10.37,2013-04-11 18:20:00,
2013-04-11 14:21:00,79.8,55.9,29.66,SW,227,0.0,0.0,44,0.00,,SCT,0.00,WeatherDisplay:10.37,2013-04-11 18:21:00,
2013-04-11 14:25:00,79.8,54.7,29.66,SSW,207,5.8,5.8,42,0.00,,SCT,0.00,WeatherDisplay:10.37,2013-04-11 18:25:00,
2013-04-11 14:30:00,79.8,55.3,29.66,South,190,3.5,3.5,43,0.00,,SCT,0.00,WeatherDisplay:10.37,2013-04-11 18:30:00,
2013-04-11 14:31:00,79.8,55.3,29.66,South,190,3.5,3.5,43,0.00,,SCT,0.00,WeatherDisplay:10.37,2013-04-11 18:31:00,
2013-04-11 14:36:00,79.8,54.0,29.66,NW,309,8.1,8.1,41,0.00,,SCT,0.00,WeatherDisplay:10.37,2013-04-11 18:36:00,
2013-04-11 14:37:00,79.8,55.3,29.66,NW,312,4.6,4.6,43,0.00,,SCT,0.00,WeatherDisplay:10.37,2013-04-11 18:37:00,
2013-04-11 14:43:00,79.6,54.5,29.65,SE,138,10.4,10.4,42,0.00,,SCT,0.00,WeatherDisplay:10.37,2013-04-11 18:43:00,
2013-04-11 14:46:00,79.4,55.6,29.65,SSE,148,4.6,4.6,44,0.00,,SCT,0.00,WeatherDisplay:10.37,2013-04-11 18:46:00,
2013-04-11 14:47:00,79.4,55.6,29.65,SSE,148,3.5,0.0,44,0.00,,SCT,0.00,WeatherDisplay:10.37,2013-04-11 18:47:00,
2013-04-11 14:49:00,79.4,55.6,29.65,SSE,148,0.0,0.0,44,0.00,,SCT,0.00,WeatherDisplay:10.37,2013-04-11 18:49:00,
2013-04-11 14:53:00,79.4,54.3,29.64,ESE,111,9.2,9.2,42,0.00,,SCT,0.00,WeatherDisplay:10.37,2013-04-11 18:53:00,
2013-04-11 14:54:00,79.4,55.0,29.64,ESE,111,6.0,6.0,43,0.00,,SCT,0.00,WeatherDisplay:10.37,2013-04-11 18:54:00,
2013-04-11 14:56:00,79.2,54.8,29.64,SE,143,6.9,6.9,43,0.00,,SCT,0.00,WeatherDisplay:10.37,2013-04-11 18:56:00,
2013-04-11 14:57:00,79.2,54.8,29.64,SE,131,4.0,4.0,43,0.00,,SCT,0.00,WeatherDisplay:10.37,2013-04-11 18:57:00,
2013-04-11 14:58:00,79.2,54.8,29.64,SE,124,5.0,5.0,43,0.00,,SCT,0.00,WeatherDisplay:10.37,2013-04-11 18:58:00,
2013-04-11 15:03:00,79.2,54.8,29.64,SE,132,1.1,1.1,43,0.00,,SCT,0.00,WeatherDisplay:10.37,2013-04-11 19:03:00,
2013-04-11 15:04:00,79.2,54.8,29.64,SSE,162,8.0,8.0,43,0.00,,SCT,0.00,WeatherDisplay:10.37,2013-04-11 19:04:00,
2013-04-11 15:07:00,79.0,54.6,29.64,SE,138,4.6,4.6,43,0.00,,SCT,0.00,WeatherDisplay:10.37,2013-04-11 19:07:00,
2013-04-11 15:08:00,79.0,54.6,29.64,SE,142,4.6,4.6,43,0.00,,SCT,0.00,WeatherDisplay:10.37,2013-04-11 19:08:00,
2013-04-11 15:09:00,79.0,54.6,29.64,SSE,165,5.8,5.8,43,0.00,,SCT,0.00,WeatherDisplay:10.37,2013-04-11 19:09:00,
2013-04-11 15:12:00,79.0,54.6,29.64,SSE,165,3.5,0.0,43,0.00,,SCT,0.00,WeatherDisplay:10.37,2013-04-11 19:12:00,
2013-04-11 15:14:00,79.0,54.6,29.64,SE,144,2.0,2.0,43,0.00,,SCT,0.00,WeatherDisplay:10.37,2013-04-11 19:14:00,
2013-04-11 15:17:00,79.0,53.9,29.64,SE,144,3.5,3.5,42,0.00,,SCT,0.00,WeatherDisplay:10.37,2013-04-11 19:17:00,
2013-04-11 15:19:00,79.0,54.6,29.63,SE,144,1.1,0.0,43,0.00,,SCT,0.00,WeatherDisplay:10.37,2013-04-11 19:19:00,
2013-04-11 15:23:00,79.2,54.1,29.63,SSE,154,9.2,9.4,42,0.00,,SCT,0.00,WeatherDisplay:10.37,2013-04-11 19:23:00,
2013-04-11 15:24:00,79.2,54.1,29.63,SE,145,13.8,13.8,42,0.00,,SCT,0.00,WeatherDisplay:10.37,2013-04-11 19:24:00,
2013-04-11 15:29:00,79.4,53.6,29.63,SW,236,13.8,13.8,41,0.00,,SCT,0.00,WeatherDisplay:10.37,2013-04-11 19:29:00,
2013-04-11 15:31:00,79.4,52.3,29.63,SW,214,11.5,11.5,39,0.00,,SCT,0.00,WeatherDisplay:10.37,2013-04-11 19:31:00,
2013-04-11 15:34:00,79.4,53.0,29.62,SSE,150,11.5,11.5,40,0.00,,SCT,0.00,WeatherDisplay:10.37,2013-04-11 19:34:00,
2013-04-11 15:36:00,79.4,53.6,29.62,SE,144,11.5,11.5,41,0.00,,SCT,0.00,WeatherDisplay:10.37,2013-04-11 19:36:00,
2013-04-11 15:38:00,79.4,53.6,29.62,SSE,155,10.4,10.4,41,0.00,,SCT,0.00,WeatherDisplay:10.37,2013-04-11 19:38:00,
2013-04-11 15:39:00,79.4,53.6,29.62,SSE,154,10.4,10.4,41,0.00,,SCT,0.00,WeatherDisplay:10.37,2013-04-11 19:39:00,
2013-04-11 15:42:00,79.4,53.6,29.62,SSE,154,8.1,8.1,41,0.00,,SCT,0.00,WeatherDisplay:10.37,2013-04-11 19:42:00,
2013-04-11 15:44:00,79.4,54.3,29.61,SSE,154,1.1,0.0,42,0.00,,SCT,0.00,WeatherDisplay:10.37,2013-04-11 19:44:00,
2013-04-11 15:46:00,79.4,55.0,29.62,SSE,159,5.0,5.0,43,0.00,,SCT,0.00,WeatherDisplay:10.37,2013-04-11 19:46:00,
2013-04-11 15:49:00,79.6,53.8,29.61,SE,142,6.9,6.9,41,0.00,,SCT,0.00,WeatherDisplay:10.37,2013-04-11 19:49:00,
2013-04-11 15:54:00,79.4,53.6,29.61,ESE,114,12.7,12.7,41,0.00,,SCT,0.00,WeatherDisplay:10.37,2013-04-11 19:54:00,
2013-04-11 15:56:00,79.4,53.6,29.61,ESE,114,8.0,8.0,41,0.00,,SCT,0.00,WeatherDisplay:10.37,2013-04-11 19:56:00,
2013-04-11 15:57:00,79.4,53.0,29.60,East,101,15.0,15.0,40,0.00,,SCT,0.00,WeatherDisplay:10.37,2013-04-11 19:57:00,
2013-04-11 15:59:00,79.4,53.0,29.61,SE,138,11.5,11.5,40,0.00,,SCT,0.00,WeatherDisplay:10.37,2013-04-11 19:59:00,
2013-04-11 16:04:00,79.4,53.6,29.61,SSE,155,10.4,10.4,41,0.00,,SCT,0.00,WeatherDisplay:10.37,2013-04-11 20:04:00,
2013-04-11 16:07:00,79.4,53.6,29.60,SSE,167,9.2,9.2,41,0.00,,SCT,0.00,WeatherDisplay:10.37,2013-04-11 20:07:00,
2013-04-11 16:08:00,79.4,53.6,29.60,ESE,121,9.0,9.0,41,0.00,,SCT,0.00,WeatherDisplay:10.37,2013-04-11 20:08:00,
2013-04-11 16:09:00,79.4,53.6,29.60,SE,136,11.5,11.5,41,0.00,,SCT,0.00,WeatherDisplay:10.37,2013-04-11 20:09:00,
2013-04-11 16:11:00,79.4,53.0,29.60,SE,135,11.5,11.5,40,0.00,,SCT,0.00,WeatherDisplay:10.37,2013-04-11 20:11:00,
2013-04-11 16:14:00,79.6,53.8,29.60,SSW,207,6.9,6.9,41,0.00,,SCT,0.00,WeatherDisplay:10.37,2013-04-11 20:14:00,
2013-04-11 16:16:00,79.6,53.1,29.60,SSE,167,12.7,12.7,40,0.00,,SCT,0.00,WeatherDisplay:10.37,2013-04-11 20:16:00,
2013-04-11 16:17:00,79.6,53.8,29.60,SE,138,12.0,12.0,41,0.00,,SCT,0.00,WeatherDisplay:10.37,2013-04-11 20:17:00,
2013-04-11 16:19:00,79.6,53.1,29.60,SSE,148,15.0,15.0,40,0.00,,SCT,0.00,WeatherDisplay:10.37,2013-04-11 20:19:00,
2013-04-11 16:24:00,79.4,52.3,29.60,SE,145,15.0,15.0,39,0.00,,SCT,0.00,WeatherDisplay:10.37,2013-04-11 20:24:00,
2013-04-11 16:25:00,79.4,53.0,29.59,SSE,150,12.7,12.7,40,0.00,,SCT,0.00,WeatherDisplay:10.37,2013-04-11 20:25:00,
2013-04-11 16:26:00,79.4,53.0,29.59,SSE,150,10.4,10.4,40,0.00,,SCT,0.00,WeatherDisplay:10.37,2013-04-11 20:26:00,
2013-04-11 16:30:00,79.4,53.6,29.60,SSE,154,17.3,17.3,41,0.00,,SCT,0.00,WeatherDisplay:10.37,2013-04-11 20:30:00,
2013-04-11 16:31:00,79.4,53.0,29.59,SSE,153,17.3,17.3,40,0.00,,SCT,0.00,WeatherDisplay:10.37,2013-04-11 20:31:00,
2013-04-11 16:33:00,79.4,53.0,29.59,SSE,147,11.5,11.5,40,0.00,,SCT,0.00,WeatherDisplay:10.37,2013-04-11 20:33:00,
2013-04-11 16:35:00,79.4,53.0,29.59,SSE,150,11.5,11.5,40,0.00,,SCT,0.00,WeatherDisplay:10.37,2013-04-11 20:35:00,
2013-04-11 16:36:00,79.6,53.1,29.59,SSE,155,12.7,12.7,40,0.00,,SCT,0.00,WeatherDisplay:10.37,2013-04-11 20:36:00,
2013-04-11 16:39:00,79.6,53.8,29.59,SSE,148,15.0,15.0,41,0.00,,SCT,0.00,WeatherDisplay:10.37,2013-04-11 20:39:00,
2013-04-11 16:41:00,79.6,53.8,29.59,South,173,16.1,16.1,41,0.00,,SCT,0.00,WeatherDisplay:10.37,2013-04-11 20:41:00,
2013-04-11 16:42:00,79.6,53.1,29.59,SSE,153,19.6,19.6,40,0.00,,SCT,0.00,WeatherDisplay:10.37,2013-04-11 20:42:00,
2013-04-11 16:44:00,79.6,53.1,29.59,SE,135,17.3,17.3,40,0.00,,SCT,0.00,WeatherDisplay:10.37,2013-04-11 20:44:00,
2013-04-11 16:47:00,79.4,53.6,29.59,SSE,161,15.0,15.0,41,0.00,,SCT,0.00,WeatherDisplay:10.37,2013-04-11 20:47:00,
2013-04-11 16:49:00,79.2,53.5,29.59,South,169,11.5,11.5,41,0.00,,SCT,0.00,WeatherDisplay:10.37,2013-04-11 20:49:00,
2013-04-11 16:51:00,79.2,53.5,29.59,SE,143,13.8,13.8,41,0.00,,SCT,0.00,WeatherDisplay:10.37,2013-04-11 20:51:00,
2013-04-11 16:54:00,79.0,53.3,29.59,SSE,155,11.5,11.5,41,0.00,,SCT,0.00,WeatherDisplay:10.37,2013-04-11 20:54:00,
2013-04-11 16:56:00,78.8,53.1,29.59,SSW,198,15.0,15.0,41,0.00,,SCT,0.00,WeatherDisplay:10.37,2013-04-11 20:56:00,
2013-04-11 16:59:00,78.8,53.1,29.59,South,184,19.6,19.6,41,0.00,,SCT,0.00,WeatherDisplay:10.37,2013-04-11 20:59:00,
2013-04-11 17:02:00,78.6,52.9,29.59,SE,138,13.8,13.8,41,0.00,,SCT,0.00,WeatherDisplay:10.37,2013-04-11 21:02:00,
2013-04-11 17:04:00,78.6,52.9,29.59,SE,130,15.0,15.0,41,0.00,,SCT,0.00,WeatherDisplay:10.37,2013-04-11 21:04:00,
2013-04-11 17:09:00,78.5,52.8,29.59,SSE,152,12.7,12.7,41,0.00,,SCT,0.00,WeatherDisplay:10.37,2013-04-11 21:09:00,
2013-04-11 17:11:00,78.3,52.7,29.59,SSE,153,9.2,9.2,41,0.00,,SCT,0.00,WeatherDisplay:10.37,2013-04-11 21:11:00,
2013-04-11 17:14:00,78.3,52.7,29.60,SSW,192,12.7,12.7,41,0.00,,SCT,0.00,WeatherDisplay:10.37,2013-04-11 21:14:00,
2013-04-11 17:15:00,78.3,53.3,29.60,South,188,9.2,9.2,42,0.00,,SCT,0.00,WeatherDisplay:10.37,2013-04-11 21:15:00,
2013-04-11 17:20:00,78.3,53.3,29.59,South,171,10.4,10.4,42,0.00,,SCT,0.00,WeatherDisplay:10.37,2013-04-11 21:20:00,
2013-04-11 17:21:00,78.3,53.3,29.59,SW,220,11.5,11.5,42,0.00,,SCT,0.00,WeatherDisplay:10.37,2013-04-11 21:21:00,
2013-04-11 17:22:00,78.3,53.3,29.59,WSW,254,9.2,9.2,42,0.00,,SCT,0.00,WeatherDisplay:10.37,2013-04-11 21:22:00,
2013-04-11 17:24:00,78.3,52.7,29.59,SW,217,11.5,11.5,41,0.00,,SCT,0.00,WeatherDisplay:10.37,2013-04-11 21:24:00,
2013-04-11 17:27:00,78.5,52.8,29.58,South,181,12.7,12.7,41,0.00,,SCT,0.00,WeatherDisplay:10.37,2013-04-11 21:27:00,
2013-04-11 17:32:00,78.5,53.5,29.58,SSE,153,11.5,11.5,42,0.00,,SCT,0.00,WeatherDisplay:10.37,2013-04-11 21:32:00,
2013-04-11 17:33:00,78.5,53.5,29.58,South,170,2.3,2.3,42,0.00,,SCT,0.00,WeatherDisplay:10.37,2013-04-11 21:33:00,
2013-04-11 17:34:00,78.6,53.6,29.58,SSW,194,5.8,5.8,42,0.00,,SCT,0.00,WeatherDisplay:10.37,2013-04-11 21:34:00,
2013-04-11 17:39:00,78.6,53.6,29.58,SSW,202,4.6,0.0,42,0.00,,SCT,0.00,WeatherDisplay:10.37,2013-04-11 21:39:00,
2013-04-11 17:40:00,78.6,53.6,29.58,SSW,192,0.0,0.2,42,0.00,,SCT,0.00,WeatherDisplay:10.37,2013-04-11 21:40:00,
2013-04-11 17:41:00,78.5,53.5,29.58,SSE,150,1.1,1.1,42,0.00,,SCT,0.00,WeatherDisplay:10.37,2013-04-11 21:41:00,
2013-04-11 17:45:00,78.5,53.5,29.58,South,169,6.0,6.0,42,0.00,,SCT,0.00,WeatherDisplay:10.37,2013-04-11 21:45:00,
2013-04-11 17:50:00,78.3,53.3,29.58,SSE,157,1.1,1.1,42,0.00,,SCT,0.00,WeatherDisplay:10.37,2013-04-11 21:50:00,
2013-04-11 17:51:00,78.3,54.0,29.58,SSE,165,5.0,5.0,43,0.00,,SCT,0.00,WeatherDisplay:10.37,2013-04-11 21:51:00,
2013-04-11 17:53:00,78.3,53.3,29.58,SSE,159,10.4,10.4,42,0.00,,SCT,0.00,WeatherDisplay:10.37,2013-04-11 21:53:00,
2013-04-11 17:55:00,78.1,53.1,29.58,SSE,159,11.5,11.5,42,0.00,,SCT,0.00,WeatherDisplay:10.37,2013-04-11 21:55:00,
2013-04-11 17:57:00,78.1,53.1,29.58,SSE,164,11.5,11.5,42,0.00,,SCT,0.00,WeatherDisplay:10.37,2013-04-11 21:57:00,
2013-04-11 18:00:00,77.9,53.0,29.58,SSE,154,12.7,12.7,42,0.00,,SCT,0.00,WeatherDisplay:10.37,2013-04-11 22:00:00,
2013-04-11 18:05:00,77.7,52.8,29.59,South,175,8.1,9.3,42,0.00,CLR,SCT,0.00,WeatherDisplay:10.37,2013-04-11 22:05:00,
2013-04-11 18:07:00,77.7,52.8,29.58,South,172,10.4,10.4,42,0.00,CLR,SCT,0.00,WeatherDisplay:10.37,2013-04-11 22:07:00,
2013-04-11 18:10:00,77.7,53.4,29.58,SE,134,7.0,7.0,43,0.00,CLR,SCT,0.00,WeatherDisplay:10.37,2013-04-11 22:10:00,
2013-04-11 18:13:00,77.6,53.3,29.59,SSE,161,10.4,10.4,43,0.00,CLR,SCT,0.00,WeatherDisplay:10.37,2013-04-11 22:13:00,
2013-04-11 18:15:00,77.6,53.3,29.59,SSE,151,8.1,8.1,43,0.00,CLR,SCT,0.00,WeatherDisplay:10.37,2013-04-11 22:15:00,
2013-04-11 18:16:00,77.6,53.3,29.59,SSE,156,12.0,12.0,43,0.00,CLR,SCT,0.00,WeatherDisplay:10.37,2013-04-11 22:16:00,
2013-04-11 18:17:00,77.6,53.3,29.59,SSE,156,11.5,11.5,43,0.00,CLR,SCT,0.00,WeatherDisplay:10.37,2013-04-11 22:17:00,
2013-04-11 18:19:00,77.4,53.1,29.59,SSE,150,12.0,12.0,43,0.00,CLR,SCT,0.00,WeatherDisplay:10.37,2013-04-11 22:19:00,
2013-04-11 18:22:00,77.4,53.1,29.59,SSE,161,19.6,19.6,43,0.00,CLR,SCT,0.00,WeatherDisplay:10.37,2013-04-11 22:22:00,
2013-04-11 18:24:00,77.4,53.1,29.59,South,189,17.3,17.3,43,0.00,CLR,SCT,0.00,WeatherDisplay:10.37,2013-04-11 22:24:00,
2013-04-11 18:27:00,77.4,53.1,29.58,SSE,163,15.0,15.0,43,0.00,CLR,SCT,0.00,WeatherDisplay:10.37,2013-04-11 22:27:00,
2013-04-11 18:29:00,77.4,53.1,29.58,SSW,192,12.7,12.7,43,0.00,CLR,SCT,0.00,WeatherDisplay:10.37,2013-04-11 22:29:00,
2013-04-11 18:31:00,77.2,53.0,29.58,South,171,12.7,12.7,43,0.00,CLR,SCT,0.00,WeatherDisplay:10.37,2013-04-11 22:31:00,
2013-04-11 18:32:00,77.2,53.0,29.58,South,174,11.5,11.5,43,0.00,CLR,SCT,0.00,WeatherDisplay:10.37,2013-04-11 22:32:00,
2013-04-11 18:36:00,77.2,53.0,29.58,SSE,157,9.2,9.2,43,0.00,CLR,SCT,0.00,WeatherDisplay:10.37,2013-04-11 22:36:00,
2013-04-11 18:39:00,77.0,52.8,29.59,South,178,11.5,11.5,43,0.00,CLR,SCT,0.00,WeatherDisplay:10.37,2013-04-11 22:39:00,
2013-04-11 18:41:00,76.8,53.2,29.59,SSE,148,11.5,11.5,44,0.00,CLR,SCT,0.00,WeatherDisplay:10.37,2013-04-11 22:41:00,
2013-04-11 18:42:00,76.8,53.2,29.59,SSE,153,12.0,12.0,44,0.00,CLR,SCT,0.00,WeatherDisplay:10.37,2013-04-11 22:42:00,
2013-04-11 18:45:00,76.7,53.1,29.59,SE,146,11.5,11.5,44,0.00,CLR,SCT,0.00,WeatherDisplay:10.37,2013-04-11 22:45:00,
2013-04-11 18:47:00,76.7,53.1,29.58,SSE,156,3.5,3.5,44,0.00,CLR,SCT,0.00,WeatherDisplay:10.37,2013-04-11 22:47:00,
2013-04-11 18:50:00,76.5,53.0,29.59,South,179,11.5,11.5,44,0.00,CLR,SCT,0.00,WeatherDisplay:10.37,2013-04-11 22:50:00,
2013-04-11 18:52:00,76.5,53.0,29.58,SSE,166,13.8,13.8,44,0.00,CLR,SCT,0.00,WeatherDisplay:10.37,2013-04-11 22:52:00,
2013-04-11 18:57:00,76.5,53.6,29.58,SSE,149,11.5,11.5,45,0.00,CLR,SCT,0.00,WeatherDisplay:10.37,2013-04-11 22:57:00,
2013-04-11 18:59:00,76.3,53.4,29.59,South,170,12.0,12.0,45,0.00,CLR,SCT,0.00,WeatherDisplay:10.37,2013-04-11 22:59:00,
2013-04-11 19:02:00,76.3,53.4,29.59,SSE,165,11.5,11.5,45,0.00,CLR,SCT,0.00,WeatherDisplay:10.37,2013-04-11 23:02:00,
2013-04-11 19:06:00,76.3,53.4,29.59,SSE,165,5.8,5.8,45,0.00,,SCT,0.00,WeatherDisplay:10.37,2013-04-11 23:06:00,
2013-04-11 19:07:00,76.3,53.4,29.59,SSE,165,6.9,6.9,45,0.00,,SCT,0.00,WeatherDisplay:10.37,2013-04-11 23:07:00,
2013-04-11 19:08:00,76.3,54.0,29.59,SSW,198,8.1,8.1,46,0.00,,SCT,0.00,WeatherDisplay:10.37,2013-04-11 23:08:00,
2013-04-11 19:11:00,76.3,54.0,29.59,WSW,240,11.5,11.5,46,0.00,,SCT,0.00,WeatherDisplay:10.37,2013-04-11 23:11:00,
2013-04-11 19:13:00,76.1,53.8,29.58,South,172,11.5,11.5,46,0.00,,SCT,0.00,WeatherDisplay:10.37,2013-04-11 23:13:00,
2013-04-11 19:14:00,76.1,53.8,29.58,SSE,163,6.9,6.9,46,0.00,,SCT,0.00,WeatherDisplay:10.37,2013-04-11 23:14:00,
2013-04-11 19:19:00,76.1,53.8,29.57,SSE,163,1.1,0.0,46,0.00,,SCT,0.00,WeatherDisplay:10.37,2013-04-11 23:19:00,
2013-04-11 19:20:00,76.0,53.7,29.57,SSE,163,1.1,0.0,46,0.00,,SCT,0.00,WeatherDisplay:10.37,2013-04-11 23:20:00,
2013-04-11 19:21:00,76.0,53.7,29.57,SSE,147,3.5,3.5,46,0.00,,SCT,0.00,WeatherDisplay:10.37,2013-04-11 23:21:00,
2013-04-11 19:25:00,75.8,53.5,29.57,SSE,152,11.5,11.5,46,0.00,,SCT,0.00,WeatherDisplay:10.37,2013-04-11 23:25:00,
2013-04-11 19:26:00,75.8,54.1,29.57,SSE,166,9.2,9.2,47,0.00,,SCT,0.00,WeatherDisplay:10.37,2013-04-11 23:26:00,
2013-04-11 19:27:00,75.8,53.5,29.57,SSE,161,10.4,10.4,46,0.00,,SCT,0.00,WeatherDisplay:10.37,2013-04-11 23:27:00,
2013-04-11 19:31:00,75.6,53.9,29.57,SSE,161,4.6,4.6,47,0.00,,SCT,0.00,WeatherDisplay:10.37,2013-04-11 23:31:00,
2013-04-11 19:32:00,75.6,53.9,29.56,South,183,4.0,4.1,47,0.00,,SCT,0.00,WeatherDisplay:10.37,2013-04-11 23:32:00,
2013-04-11 19:33:00,75.6,53.9,29.56,South,182,5.8,5.8,47,0.00,,SCT,0.00,WeatherDisplay:10.37,2013-04-11 23:33:00,
2013-04-11 19:39:00,75.4,53.8,29.57,South,182,9.0,9.0,47,0.00,,SCT,0.00,WeatherDisplay:10.37,2013-04-11 23:39:00,
2013-04-11 19:40:00,75.4,54.3,29.56,South,178,16.1,16.1,48,0.00,,SCT,0.00,WeatherDisplay:10.37,2013-04-11 23:40:00,
2013-04-11 19:45:00,75.4,54.3,29.56,South,177,10.4,10.4,48,0.00,,SCT,0.00,WeatherDisplay:10.37,2013-04-11 23:45:00,
2013-04-11 19:46:00,75.3,54.3,29.56,South,173,10.4,10.4,48,0.00,,SCT,0.00,WeatherDisplay:10.37,2013-04-11 23:46:00,
2013-04-11 19:51:00,75.3,54.3,29.57,South,175,5.0,5.0,48,0.00,,SCT,0.00,WeatherDisplay:10.37,2013-04-11 23:51:00,
2013-04-11 19:52:00,75.3,54.3,29.57,SSW,195,8.1,8.1,48,0.00,,SCT,0.00,WeatherDisplay:10.37,2013-04-11 23:52:00,
2013-04-11 19:53:00,75.3,54.3,29.57,SSW,196,6.9,6.9,48,0.00,,SCT,0.00,WeatherDisplay:10.37,2013-04-11 23:53:00,
2013-04-11 19:54:00,75.3,54.3,29.57,SE,138,8.1,8.1,48,0.00,,SCT,0.00,WeatherDisplay:10.37,2013-04-11 23:54:00,
2013-04-11 19:58:00,75.3,54.3,29.57,SE,138,0.0,0.0,48,0.00,,SCT,0.00,WeatherDisplay:10.37,2013-04-11 23:58:00,
2013-04-11 19:59:00,75.3,54.3,29.57,SE,138,0.0,0.0,48,0.00,,SCT,0.00,WeatherDisplay:10.37,2013-04-11 23:59:00,
2013-04-11 20:02:00,75.3,54.3,29.56,SE,138,0.0,0.0,48,0.00,,SCT,0.00,WeatherDisplay:10.37,2013-04-12 00:02:00,
2013-04-11 20:03:00,75.3,54.3,29.56,SE,138,0.0,0.0,48,0.00,,SCT,0.00,WeatherDisplay:10.37,2013-04-12 00:03:00,
2013-04-11 20:04:00,75.3,54.3,29.56,SE,138,0.0,0.0,48,0.00,,SCT,0.00,WeatherDisplay:10.37,2013-04-12 00:04:00,
2013-04-11 20:06:00,75.3,54.3,29.55,SE,138,0.0,0.0,48,0.00,,SCT,0.00,WeatherDisplay:10.37,2013-04-12 00:06:00,
2013-04-11 20:10:00,75.1,54.6,29.54,SE,138,0.0,0.0,49,0.00,,SCT,0.00,WeatherDisplay:10.37,2013-04-12 00:10:00,
2013-04-11 20:11:00,74.9,54.4,29.54,SE,138,0.0,0.0,49,0.00,,SCT,0.00,WeatherDisplay:10.37,2013-04-12 00:11:00,
2013-04-11 20:16:00,74.6,54.7,29.55,South,171,6.9,6.9,50,0.00,,SCT,0.00,WeatherDisplay:10.37,2013-04-12 00:16:00,
2013-04-11 20:18:00,74.6,54.7,29.55,SSW,194,3.5,4.2,50,0.00,,SCT,0.00,WeatherDisplay:10.37,2013-04-12 00:18:00,
2013-04-11 20:19:00,74.6,54.7,29.55,South,172,10.4,10.4,50,0.00,,SCT,0.00,WeatherDisplay:10.37,2013-04-12 00:19:00,
2013-04-11 20:24:00,74.7,55.4,29.55,SSE,150,13.8,13.8,51,0.00,,SCT,0.00,WeatherDisplay:10.37,2013-04-12 00:24:00,
2013-04-11 20:25:00,74.7,55.4,29.55,South,175,13.8,13.8,51,0.00,,SCT,0.00,WeatherDisplay:10.37,2013-04-12 00:25:00,
2013-04-11 20:26:00,74.7,55.4,29.55,SSE,157,9.2,9.2,51,0.00,,SCT,0.00,WeatherDisplay:10.37,2013-04-12 00:26:00,
2013-04-11 20:29:00,74.9,55.6,29.55,South,178,12.0,12.0,51,0.00,,SCT,0.00,WeatherDisplay:10.37,2013-04-12 00:29:00,
2013-04-11 20:30:00,74.9,55.6,29.55,SSE,160,11.5,11.5,51,0.00,,SCT,0.00,WeatherDisplay:10.37,2013-04-12 00:30:00,
2013-04-11 20:32:00,74.9,55.6,29.55,South,169,8.1,8.1,51,0.00,,SCT,0.00,WeatherDisplay:10.37,2013-04-12 00:32:00,
2013-04-11 20:34:00,74.9,55.6,29.55,SSE,152,10.4,10.4,51,0.00,,SCT,0.00,WeatherDisplay:10.37,2013-04-12 00:34:00,
2013-04-11 20:35:00,74.9,55.6,29.55,SSE,157,15.0,15.0,51,0.00,,SCT,0.00,WeatherDisplay:10.37,2013-04-12 00:35:00,
2013-04-11 20:36:00,74.9,55.6,29.55,SSE,157,15.0,15.0,51,0.00,,SCT,0.00,WeatherDisplay:10.37,2013-04-12 00:36:00,
2013-04-11 20:37:00,74.9,55.6,29.54,SSE,158,15.0,15.0,51,0.00,,SCT,0.00,WeatherDisplay:10.37,2013-04-12 00:37:00,
2013-04-11 20:40:00,74.9,55.6,29.54,SE,145,13.8,13.8,51,0.00,,SCT,0.00,WeatherDisplay:10.37,2013-04-12 00:40:00,
2013-04-11 20:42:00,75.1,55.7,29.54,SSE,167,8.1,8.1,51,0.00,,SCT,0.00,WeatherDisplay:10.37,2013-04-12 00:42:00,
2013-04-11 20:45:00,74.9,56.1,29.55,South,176,5.0,5.0,52,0.00,,SCT,0.00,WeatherDisplay:10.37,2013-04-12 00:45:00,
2013-04-11 20:46:00,74.9,56.1,29.55,SSE,148,5.8,7.2,52,0.00,,SCT,0.00,WeatherDisplay:10.37,2013-04-12 00:46:00,
2013-04-11 20:51:00,74.9,56.1,29.55,SE,134,4.6,4.6,52,0.00,,SCT,0.00,WeatherDisplay:10.37,2013-04-12 00:51:00,
2013-04-11 20:52:00,74.7,55.9,29.55,SE,134,4.6,4.6,52,0.00,,SCT,0.00,WeatherDisplay:10.37,2013-04-12 00:52:00,
2013-04-11 20:53:00,74.7,55.9,29.54,SE,141,6.0,6.0,52,0.00,,SCT,0.00,WeatherDisplay:10.37,2013-04-12 00:53:00,
2013-04-11 20:56:00,74.6,56.3,29.54,ESE,122,5.8,5.8,53,0.00,,SCT,0.00,WeatherDisplay:10.37,2013-04-12 00:56:00,
2013-04-11 20:58:00,74.6,56.3,29.54,ESE,122,0.0,0.0,53,0.00,,SCT,0.00,WeatherDisplay:10.37,2013-04-12 00:58:00,
2013-04-11 20:59:00,74.4,56.2,29.55,SE,134,2.0,2.0,53,0.00,,SCT,0.00,WeatherDisplay:10.37,2013-04-12 00:59:00,
2013-04-11 21:02:00,74.4,56.7,29.56,SSE,167,13.8,13.8,54,0.00,,SCT,0.00,WeatherDisplay:10.37,2013-04-12 01:02:00,
2013-04-11 21:03:00,74.2,56.5,29.56,SSE,166,11.5,11.5,54,0.00,,SCT,0.00,WeatherDisplay:10.37,2013-04-12 01:03:00,
2013-04-11 21:05:00,74.0,56.3,29.55,SSE,166,3.5,3.5,54,0.00,,SCT,0.00,WeatherDisplay:10.37,2013-04-12 01:05:00,
2013-04-11 21:06:00,74.0,56.8,29.54,SSE,166,1.1,0.0,55,0.00,,SCT,0.00,WeatherDisplay:10.37,2013-04-12 01:06:00,
2013-04-11 21:09:00,73.7,56.0,29.54,SSE,166,0.0,0.0,54,0.00,,SCT,0.00,WeatherDisplay:10.37,2013-04-12 01:09:00,
2013-04-11 21:10:00,73.7,56.0,29.54,SSE,166,0.0,0.0,54,0.00,,SCT,0.00,WeatherDisplay:10.37,2013-04-12 01:10:00,
2013-04-11 21:12:00,73.5,56.3,29.54,SSE,166,0.0,0.0,55,0.00,,SCT,0.00,WeatherDisplay:10.37,2013-04-12 01:12:00,
2013-04-11 21:15:00,73.2,56.1,29.55,SSE,166,0.0,0.0,55,0.00,,SCT,0.00,WeatherDisplay:10.37,2013-04-12 01:15:00,
2013-04-11 21:17:00,73.0,56.4,29.55,SSE,166,0.0,0.0,56,0.00,,SCT,0.00,WeatherDisplay:10.37,2013-04-12 01:17:00,
2013-04-11 21:20:00,72.8,56.2,29.55,SSE,166,0.0,0.0,56,0.00,,SCT,0.00,WeatherDisplay:10.37,2013-04-12 01:20:00,
2013-04-11 21:22:00,72.7,56.1,29.55,SSE,166,0.0,0.0,56,0.00,,SCT,0.00,WeatherDisplay:10.37,2013-04-12 01:22:00,
2013-04-11 21:25:00,72.5,56.4,29.55,SSW,204,4.0,4.6,57,0.00,,SCT,0.00,WeatherDisplay:10.37,2013-04-12 01:25:00,
2013-04-11 21:27:00,72.3,56.7,29.55,South,169,5.8,5.8,58,0.00,,SCT,0.00,WeatherDisplay:10.37,2013-04-12 01:27:00,
2013-04-11 21:32:00,72.3,56.7,29.55,SSW,200,9.0,9.0,58,0.00,,SCT,0.00,WeatherDisplay:10.37,2013-04-12 01:32:00,
2013-04-11 21:33:00,72.3,57.2,29.55,South,170,9.2,9.2,59,0.00,,SCT,0.00,WeatherDisplay:10.37,2013-04-12 01:33:00,
2013-04-11 21:37:00,72.3,57.2,29.55,South,173,11.5,11.5,59,0.00,,SCT,0.00,WeatherDisplay:10.37,2013-04-12 01:37:00,
2013-04-11 21:41:00,72.3,57.2,29.55,SW,232,6.9,6.9,59,0.00,,SCT,0.00,WeatherDisplay:10.37,2013-04-12 01:41:00,
2013-04-11 21:42:00,72.3,57.2,29.54,SW,232,6.9,6.9,59,0.00,,SCT,0.00,WeatherDisplay:10.37,2013-04-12 01:42:00,
2013-04-11 21:43:00,72.3,57.2,29.54,SW,232,0.0,0.0,59,0.00,,SCT,0.00,WeatherDisplay:10.37,2013-04-12 01:43:00,
2013-04-11 21:47:00,72.3,57.2,29.53,SSW,207,9.2,9.2,59,0.00,,SCT,0.00,WeatherDisplay:10.37,2013-04-12 01:47:00,
2013-04-11 21:48:00,72.3,57.2,29.53,South,182,1.1,0.0,59,0.00,,SCT,0.00,WeatherDisplay:10.37,2013-04-12 01:48:00,
2013-04-11 21:50:00,72.3,57.2,29.53,SW,234,9.2,9.2,59,0.00,,SCT,0.00,WeatherDisplay:10.37,2013-04-12 01:50:00,
2013-04-11 21:53:00,72.3,57.6,29.53,South,190,5.8,5.8,60,0.00,,SCT,0.00,WeatherDisplay:10.37,2013-04-12 01:53:00,
2013-04-11 21:55:00,72.3,57.6,29.53,South,190,3.5,3.5,60,0.00,,SCT,0.00,WeatherDisplay:10.37,2013-04-12 01:55:00,
2013-04-11 21:56:00,72.3,57.6,29.53,South,190,1.1,0.0,60,0.00,,SCT,0.00,WeatherDisplay:10.37,2013-04-12 01:56:00,
2013-04-11 21:57:00,72.3,57.6,29.53,South,190,0.0,0.0,60,0.00,,SCT,0.00,WeatherDisplay:10.37,2013-04-12 01:57:00,
2013-04-11 21:58:00,72.3,57.2,29.53,South,190,0.0,0.0,59,0.00,,SCT,0.00,WeatherDisplay:10.37,2013-04-12 01:58:00,
2013-04-11 22:03:00,72.1,57.0,29.54,South,190,0.0,0.0,59,0.00,,SCT,0.00,WeatherDisplay:10.37,2013-04-12 02:03:00,
2013-04-11 22:04:00,72.1,57.0,29.54,South,190,0.0,0.0,59,0.00,,SCT,0.00,WeatherDisplay:10.37,2013-04-12 02:04:00,
2013-04-11 22:09:00,72.0,57.4,29.53,South,188,0.0,0.0,60,0.00,,SCT,0.00,WeatherDisplay:10.37,2013-04-12 02:09:00,
2013-04-11 22:10:00,72.0,57.4,29.53,South,188,0.0,0.0,60,0.00,,SCT,0.00,WeatherDisplay:10.37,2013-04-12 02:10:00,
2013-04-11 22:14:00,71.8,57.2,29.53,South,188,0.0,0.0,60,0.00,,SCT,0.00,WeatherDisplay:10.37,2013-04-12 02:14:00,
2013-04-11 22:15:00,71.8,57.6,29.53,South,189,0.0,0.0,61,0.00,,SCT,0.00,WeatherDisplay:10.37,2013-04-12 02:15:00,
2013-04-11 22:16:00,71.8,57.6,29.53,South,189,0.0,0.0,61,0.00,,SCT,0.00,WeatherDisplay:10.37,2013-04-12 02:16:00,
2013-04-11 22:20:00,71.6,57.9,29.53,SW,219,4.0,4.2,62,0.00,,SCT,0.00,WeatherDisplay:10.37,2013-04-12 02:20:00,
2013-04-11 22:21:00,71.5,57.8,29.53,SW,219,6.9,6.9,62,0.00,,SCT,0.00,WeatherDisplay:10.37,2013-04-12 02:21:00,
2013-04-11 22:22:00,71.5,57.8,29.53,West,269,6.9,6.9,62,0.00,,SCT,0.00,WeatherDisplay:10.37,2013-04-12 02:22:00,
2013-04-11 22:27:00,71.3,58.1,29.53,WSW,248,2.3,0.0,63,0.00,,SCT,0.00,WeatherDisplay:10.37,2013-04-12 02:27:00,
2013-04-11 22:28:00,71.3,58.1,29.53,WSW,248,0.0,0.0,63,0.00,,SCT,0.00,WeatherDisplay:10.37,2013-04-12 02:28:00,
2013-04-11 22:32:00,71.1,57.9,29.52,WSW,248,0.0,0.0,63,0.00,,SCT,0.00,WeatherDisplay:10.37,2013-04-12 02:32:00,
2013-04-11 22:33:00,71.1,57.9,29.53,WSW,248,0.0,0.0,63,0.00,,SCT,0.00,WeatherDisplay:10.37,2013-04-12 02:33:00,
2013-04-11 22:38:00,70.9,57.7,29.52,WSW,248,0.0,0.0,63,0.00,,SCT,0.00,WeatherDisplay:10.37,2013-04-12 02:38:00,
2013-04-11 22:40:00,70.8,58.0,29.53,WSW,248,0.0,0.0,64,0.00,,SCT,0.00,WeatherDisplay:10.37,2013-04-12 02:40:00,
2013-04-11 22:41:00,70.8,58.0,29.53,WSW,248,0.0,0.0,64,0.00,,SCT,0.00,WeatherDisplay:10.37,2013-04-12 02:41:00,
2013-04-11 22:43:00,70.8,58.0,29.53,West,271,3.0,3.2,64,0.00,,SCT,0.00,WeatherDisplay:10.37,2013-04-12 02:43:00,
2013-04-11 22:45:00,70.6,58.3,29.53,West,273,3.5,3.5,65,0.00,,SCT,0.00,WeatherDisplay:10.37,2013-04-12 02:45:00,
2013-04-11 22:48:00,70.6,58.3,29.53,WNW,302,6.9,6.9,65,0.00,,SCT,0.00,WeatherDisplay:10.37,2013-04-12 02:48:00,
2013-04-11 22:52:00,70.4,58.1,29.53,WNW,301,4.6,0.0,65,0.00,,SCT,0.00,WeatherDisplay:10.37,2013-04-12 02:52:00,
2013-04-11 22:56:00,70.3,58.0,29.53,WNW,301,1.1,1.1,65,0.00,,SCT,0.00,WeatherDisplay:10.37,2013-04-12 02:56:00,
2013-04-11 22:57:00,70.3,58.4,29.53,WNW,301,1.1,0.0,66,0.00,,SCT,0.00,WeatherDisplay:10.37,2013-04-12 02:57:00,
2013-04-11 22:58:00,70.3,58.4,29.53,WNW,301,0.0,0.0,66,0.00,,SCT,0.00,WeatherDisplay:10.37,2013-04-12 02:58:00,
2013-04-11 23:02:00,70.1,58.2,29.52,WNW,300,4.0,4.0,66,0.00,,SCT,0.00,WeatherDisplay:10.37,2013-04-12 03:02:00,
2013-04-11 23:04:00,70.1,58.2,29.52,WNW,302,3.5,0.0,66,0.00,,SCT,0.00,WeatherDisplay:10.37,2013-04-12 03:04:00,
2013-04-11 23:05:00,70.1,58.2,29.52,WNW,302,0.0,0.0,66,0.00,,SCT,0.00,WeatherDisplay:10.37,2013-04-12 03:05:00,
2013-04-11 23:10:00,70.1,58.2,29.53,WNW,302,0.0,0.0,66,0.00,,SCT,0.00,WeatherDisplay:10.37,2013-04-12 03:10:00,
2013-04-11 23:11:00,70.1,58.2,29.53,WNW,302,0.0,0.0,66,0.00,,SCT,0.00,WeatherDisplay:10.37,2013-04-12 03:11:00,
2013-04-11 23:12:00,70.1,58.6,29.53,WNW,300,5.0,5.0,67,0.00,,SCT,0.00,WeatherDisplay:10.37,2013-04-12 03:12:00,
2013-04-11 23:13:00,69.9,58.4,29.53,WNW,288,5.8,5.8,67,0.00,,SCT,0.00,WeatherDisplay:10.37,2013-04-12 03:13:00,
2013-04-11 23:17:00,69.8,59.2,29.55,WNW,283,9.2,9.2,69,0.00,,SCT,0.00,WeatherDisplay:10.37,2013-04-12 03:17:00,
2013-04-11 23:18:00,69.8,59.2,29.55,WSW,248,14.0,14.0,69,0.00,,SCT,0.00,WeatherDisplay:10.37,2013-04-12 03:18:00,
2013-04-11 23:22:00,69.6,59.4,29.56,West,261,14.0,14.0,70,0.00,,SCT,0.01,WeatherDisplay:10.37,2013-04-12 03:22:00,
2013-04-11 23:23:00,69.6,59.8,29.56,West,275,15.0,15.0,71,0.01,RA,SCT,0.01,WeatherDisplay:10.37,2013-04-12 03:23:00,
2013-04-11 23:24:00,69.4,59.6,29.56,West,263,19.0,19.0,71,0.01,RA,SCT,0.02,WeatherDisplay:10.37,2013-04-12 03:24:00,
2013-04-11 23:25:00,69.3,60.3,29.57,West,265,25.3,25.3,73,0.02,RA,SCT,0.02,WeatherDisplay:10.37,2013-04-12 03:25:00,
2013-04-11 23:29:00,67.6,59.0,29.58,WSW,257,21.9,21.9,74,0.08,RA,SCT,0.09,WeatherDisplay:10.37,2013-04-12 03:29:00,
2013-04-11 23:31:00,66.9,59.1,29.59,WSW,240,16.1,16.1,76,0.10,RA,SCT,0.10,WeatherDisplay:10.37,2013-04-12 03:31:00,
2013-04-11 23:32:00,66.4,58.6,29.60,West,261,19.6,19.6,76,0.10,RA,SCT,0.12,WeatherDisplay:10.37,2013-04-12 03:32:00,
2013-04-11 23:33:00,66.3,58.5,29.60,WSW,256,19.6,19.6,76,0.12,RA,SCT,0.12,WeatherDisplay:10.37,2013-04-12 03:33:00,
2013-04-11 23:37:00,65.2,58.2,29.61,West,259,15.0,15.0,78,0.19,RA,SCT,0.22,WeatherDisplay:10.37,2013-04-12 03:37:00,
2013-04-11 23:38:00,65.0,58.3,29.60,West,271,17.3,17.3,79,0.23,RA,SCT,0.25,WeatherDisplay:10.37,2013-04-12 03:38:00,
2013-04-11 23:39:00,64.7,58.4,29.60,West,267,21.9,21.9,80,0.25,RA,SCT,0.29,WeatherDisplay:10.37,2013-04-12 03:39:00,
2013-04-11 23:43:00,64.0,58.1,29.62,WSW,238,17.3,17.3,81,0.35,RA,SCT,0.35,WeatherDisplay:10.37,2013-04-12 03:43:00,
2013-04-11 23:44:00,63.9,58.0,29.62,West,263,23.0,23.0,81,0.35,RA,SCT,0.36,WeatherDisplay:10.37,2013-04-12 03:44:00,
2013-04-11 23:45:00,63.7,57.4,29.62,SW,220,19.6,19.6,80,0.36,RA,SCT,0.37,WeatherDisplay:10.37,2013-04-12 03:45:00,
2013-04-11 23:47:00,63.5,57.2,29.62,WSW,258,16.1,16.1,80,0.38,RA,SCT,0.38,WeatherDisplay:10.37,2013-04-12 03:47:00,
2013-04-11 23:48:00,63.5,57.6,29.61,WSW,250,18.4,18.4,81,0.38,RA,SCT,0.39,WeatherDisplay:10.37,2013-04-12 03:48:00,
2013-04-11 23:52:00,63.2,57.3,29.62,SW,227,16.1,16.1,81,0.40,RA,SCT,0.41,WeatherDisplay:10.37,2013-04-12 03:52:00,
2013-04-11 23:53:00,63.1,57.2,29.62,WSW,241,10.4,10.4,81,0.41,RA,SCT,0.41,WeatherDisplay:10.37,2013-04-12 03:53:00,
2013-04-11 23:56:00,62.9,57.0,29.62,SW,221,10.4,10.4,81,0.42,RA,SCT,0.42,WeatherDisplay:10.37,2013-04-12 03:56:00,
2013-04-11 23:59:00,62.9,56.6,29.62,SSW,192,6.9,6.9,80,0.43,RA,SCT,0.43,WeatherDisplay:10.37,2013-04-12 03:59:00,